Wetterdaten: Donnerstag, 16.03.2017
Datum Zeit Temp. A. Feuchte A. Luftdruck Regen Wind Richtung Richtung Sonnenschein ET UV Solar Taupunkt Windchill Windben Empfang
16.03.2017 00:00 5,8 C 89 % 1028,2 hPa 0,0 l/m 6,8 km/h (2 Bft) SW 224 0 min 0,000 mm 0,0 UV-I 0 W/m 4,1 C 5,5 C 9,7 km/h (2 Bft) 92,68 %
16.03.2017 00:02 5,7 C 89 % 1028,2 hPa 0,0 l/m 5,5 km/h (1 Bft) SW 224 0 min 0,000 mm 0,0 UV-I 0 W/m 4,0 C 5,7 C 9,7 km/h (2 Bft) 97,50 %
16.03.2017 00:04 5,7 C 89 % 1028,3 hPa 0,0 l/m 5,4 km/h (1 Bft) W-SW 238 0 min 0,000 mm 0,0 UV-I 0 W/m 4,0 C 5,7 C 8,0 km/h (2 Bft) 100,00 %
16.03.2017 00:06 5,7 C 89 % 1028,2 hPa 0,0 l/m 6,2 km/h (2 Bft) SW 229 0 min 0,000 mm 0,0 UV-I 0 W/m 4,0 C 5,7 C 9,7 km/h (2 Bft) 97,56 %
16.03.2017 00:08 5,7 C 90 % 1028,2 hPa 0,0 l/m 5,5 km/h (1 Bft) W-SW 237 0 min 0,000 mm 0,0 UV-I 0 W/m 4,2 C 5,7 C 8,0 km/h (2 Bft) 100,00 %
16.03.2017 00:10 5,7 C 90 % 1028,2 hPa 0,0 l/m 6,8 km/h (2 Bft) S-SW 204 0 min 0,000 mm 0,0 UV-I 0 W/m 4,2 C 5,4 C 9,7 km/h (2 Bft) 100,00 %
16.03.2017 00:12 5,7 C 90 % 1028,2 hPa 0,0 l/m 8,5 km/h (2 Bft) S-SW 207 0 min 0,000 mm 0,0 UV-I 0 W/m 4,2 C 3,9 C 12,9 km/h (3 Bft) 96,92 %
16.03.2017 00:14 5,6 C 90 % 1028,1 hPa 0,0 l/m 8,0 km/h (2 Bft) S-SW 192 0 min 0,000 mm 0,0 UV-I 0 W/m 4,1 C 4,2 C 12,9 km/h (3 Bft) 100,00 %
16.03.2017 00:16 5,6 C 90 % 1028,1 hPa 0,0 l/m 8,6 km/h (2 Bft) S-SW 206 0 min 0,000 mm 0,0 UV-I 0 W/m 4,1 C 3,8 C 12,9 km/h (3 Bft) 97,87 %
16.03.2017 00:18 5,6 C 90 % 1028,1 hPa 0,0 l/m 7,7 km/h (2 Bft) S-SW 204 0 min 0,000 mm 0,0 UV-I 0 W/m 4,1 C 4,5 C 11,3 km/h (2 Bft) 97,37 %
16.03.2017 00:20 5,6 C 90 % 1028,0 hPa 0,0 l/m 9,9 km/h (2 Bft) SW 218 0 min 0,000 mm 0,0 UV-I 0 W/m 4,1 C 2,8 C 12,9 km/h (3 Bft) 96,23 %
16.03.2017 00:22 5,6 C 90 % 1028,0 hPa 0,0 l/m 9,6 km/h (2 Bft) SW 215 0 min 0,000 mm 0,0 UV-I 0 W/m 4,1 C 3,0 C 12,9 km/h (3 Bft) 95,12 %
16.03.2017 00:24 5,6 C 90 % 1028,0 hPa 0,0 l/m 8,5 km/h (2 Bft) SW 214 0 min 0,000 mm 0,0 UV-I 0 W/m 4,1 C 3,8 C 11,3 km/h (2 Bft) 97,73 %
16.03.2017 00:26 5,5 C 90 % 1027,9 hPa 0,0 l/m 8,9 km/h (2 Bft) S-SW 208 0 min 0,000 mm 0,0 UV-I 0 W/m 4,0 C 3,4 C 12,9 km/h (3 Bft) 96,23 %
16.03.2017 00:28 5,6 C 90 % 1028,0 hPa 0,0 l/m 9,2 km/h (2 Bft) SW 215 0 min 0,000 mm 0,0 UV-I 0 W/m 4,1 C 3,3 C 11,3 km/h (2 Bft) 98,00 %
16.03.2017 00:30 5,5 C 90 % 1028,0 hPa 0,0 l/m 9,4 km/h (2 Bft) SW 225 0 min 0,000 mm 0,0 UV-I 0 W/m 4,0 C 3,1 C 12,9 km/h (3 Bft) 94,87 %
16.03.2017 00:32 5,5 C 90 % 1027,9 hPa 0,0 l/m 8,8 km/h (2 Bft) S-SW 194 0 min 0,000 mm 0,0 UV-I 0 W/m 4,0 C 3,5 C 12,9 km/h (3 Bft) 97,87 %
16.03.2017 00:34 5,5 C 90 % 1028,0 hPa 0,0 l/m 9,1 km/h (2 Bft) SW 216 0 min 0,000 mm 0,0 UV-I 0 W/m 4,0 C 3,3 C 11,3 km/h (2 Bft) 92,11 %
16.03.2017 00:36 5,5 C 90 % 1027,9 hPa 0,0 l/m 8,5 km/h (2 Bft) SW 223 0 min 0,000 mm 0,0 UV-I 0 W/m 4,0 C 3,7 C 11,3 km/h (2 Bft) 94,64 %
16.03.2017 00:38 5,4 C 90 % 1027,9 hPa 0,0 l/m 7,8 km/h (2 Bft) SW 216 0 min 0,000 mm 0,0 UV-I 0 W/m 3,9 C 4,2 C 11,3 km/h (2 Bft) 98,21 %
16.03.2017 00:40 5,4 C 90 % 1027,9 hPa 0,0 l/m 6,7 km/h (2 Bft) S-SW 200 0 min 0,000 mm 0,0 UV-I 0 W/m 3,9 C 5,2 C 11,3 km/h (2 Bft) 93,18 %
16.03.2017 00:42 5,4 C 90 % 1027,8 hPa 0,0 l/m 6,9 km/h (2 Bft) SW 227 0 min 0,000 mm 0,0 UV-I 0 W/m 3,9 C 5,0 C 9,7 km/h (2 Bft) 98,00 %
16.03.2017 00:44 5,3 C 90 % 1027,8 hPa 0,0 l/m 7,8 km/h (2 Bft) SW 229 0 min 0,000 mm 0,0 UV-I 0 W/m 3,8 C 4,1 C 14,5 km/h (3 Bft) 94,74 %
16.03.2017 00:46 5,3 C 90 % 1027,8 hPa 0,0 l/m 6,5 km/h (2 Bft) SW 223 0 min 0,000 mm 0,0 UV-I 0 W/m 3,8 C 5,2 C 11,3 km/h (2 Bft) 96,00 %
16.03.2017 00:48 5,3 C 90 % 1027,9 hPa 0,0 l/m 6,6 km/h (2 Bft) S-SW 208 0 min 0,000 mm 0,0 UV-I 0 W/m 3,8 C 5,1 C 9,7 km/h (2 Bft) 97,73 %
16.03.2017 00:50 5,2 C 91 % 1027,8 hPa 0,0 l/m 6,6 km/h (2 Bft) W-SW 254 0 min 0,000 mm 0,0 UV-I 0 W/m 3,9 C 5,0 C 11,3 km/h (2 Bft) 92,00 %
16.03.2017 00:52 5,2 C 91 % 1027,8 hPa 0,0 l/m 6,4 km/h (2 Bft) S-SW 213 0 min 0,000 mm 0,0 UV-I 0 W/m 3,9 C 5,2 C 9,7 km/h (2 Bft) 98,00 %
16.03.2017 00:54 5,2 C 91 % 1027,9 hPa 0,0 l/m 7,4 km/h (2 Bft) SW 223 0 min 0,000 mm 0,0 UV-I 0 W/m 3,9 C 4,3 C 12,9 km/h (3 Bft) 97,73 %
16.03.2017 00:56 5,2 C 91 % 1027,9 hPa 0,0 l/m 5,8 km/h (2 Bft) W-SW 248 0 min 0,000 mm 0,0 UV-I 0 W/m 3,9 C 5,2 C 8,0 km/h (2 Bft) 100,00 %
16.03.2017 00:58 5,2 C 91 % 1027,8 hPa 0,0 l/m 5,7 km/h (1 Bft) S-SW 206 0 min 0,000 mm 0,0 UV-I 0 W/m 3,9 C 5,2 C 8,0 km/h (2 Bft) 100,00 %
16.03.2017 01:00 5,2 C 91 % 1027,8 hPa 0,0 l/m 8,8 km/h (2 Bft) SW 232 0 min 0,000 mm 0,0 UV-I 0 W/m 3,9 C 3,2 C 12,9 km/h (3 Bft) 100,00 %
16.03.2017 01:02 5,2 C 91 % 1027,8 hPa 0,0 l/m 8,0 km/h (2 Bft) S-SW 193 0 min 0,000 mm 0,0 UV-I 0 W/m 3,9 C 3,8 C 12,9 km/h (3 Bft) 100,00 %
16.03.2017 01:04 5,2 C 91 % 1027,8 hPa 0,0 l/m 8,4 km/h (2 Bft) S-SW 200 0 min 0,000 mm 0,0 UV-I 0 W/m 3,9 C 3,5 C 11,3 km/h (2 Bft) 100,00 %
16.03.2017 01:06 5,2 C 91 % 1027,8 hPa 0,0 l/m 6,5 km/h (2 Bft) S-SW 208 0 min 0,000 mm 0,0 UV-I 0 W/m 3,9 C 5,1 C 11,3 km/h (2 Bft) 98,31 %
16.03.2017 01:08 5,2 C 91 % 1027,7 hPa 0,0 l/m 7,5 km/h (2 Bft) SW 214 0 min 0,000 mm 0,0 UV-I 0 W/m 3,9 C 4,2 C 11,3 km/h (2 Bft) 100,00 %
16.03.2017 01:10 5,2 C 91 % 1027,7 hPa 0,0 l/m 8,3 km/h (2 Bft) S-SW 209 0 min 0,000 mm 0,0 UV-I 0 W/m 3,9 C 3,6 C 12,9 km/h (3 Bft) 96,23 %
16.03.2017 01:12 5,2 C 91 % 1027,8 hPa 0,0 l/m 8,7 km/h (2 Bft) S-SW 200 0 min 0,000 mm 0,0 UV-I 0 W/m 3,9 C 3,3 C 11,3 km/h (2 Bft) 97,87 %
16.03.2017 01:14 5,2 C 91 % 1027,8 hPa 0,0 l/m 6,9 km/h (2 Bft) S-SW 202 0 min 0,000 mm 0,0 UV-I 0 W/m 3,9 C 4,8 C 11,3 km/h (2 Bft) 94,87 %
16.03.2017 01:16 5,2 C 91 % 1027,8 hPa 0,0 l/m 6,8 km/h (2 Bft) S-SW 210 0 min 0,000 mm 0,0 UV-I 0 W/m 3,9 C 4,9 C 9,7 km/h (2 Bft) 96,23 %
16.03.2017 01:18 5,2 C 91 % 1027,7 hPa 0,0 l/m 8,0 km/h (2 Bft) S-SW 202 0 min 0,000 mm 0,0 UV-I 0 W/m 3,9 C 3,8 C 11,3 km/h (2 Bft) 100,00 %
16.03.2017 01:20 5,2 C 91 % 1027,7 hPa 0,0 l/m 8,0 km/h (2 Bft) S 175 0 min 0,000 mm 0,0 UV-I 0 W/m 3,9 C 3,8 C 11,3 km/h (2 Bft) 98,00 %
16.03.2017 01:22 5,2 C 91 % 1027,7 hPa 0,0 l/m 8,4 km/h (2 Bft) S-SW 200 0 min 0,000 mm 0,0 UV-I 0 W/m 3,9 C 3,5 C 11,3 km/h (2 Bft) 94,74 %
16.03.2017 01:24 5,1 C 91 % 1027,7 hPa 0,0 l/m 8,5 km/h (2 Bft) SW 217 0 min 0,000 mm 0,0 UV-I 0 W/m 3,8 C 3,3 C 12,9 km/h (3 Bft) 98,21 %
16.03.2017 01:26 5,1 C 91 % 1027,7 hPa 0,0 l/m 7,2 km/h (2 Bft) S-SW 211 0 min 0,000 mm 0,0 UV-I 0 W/m 3,8 C 4,4 C 9,7 km/h (2 Bft) 97,87 %
16.03.2017 01:28 5,1 C 91 % 1027,7 hPa 0,0 l/m 7,2 km/h (2 Bft) S-SW 211 0 min 0,000 mm 0,0 UV-I 0 W/m 3,8 C 4,4 C 9,7 km/h (2 Bft) 100,00 %
16.03.2017 01:30 5,1 C 91 % 1027,6 hPa 0,0 l/m 8,0 km/h (2 Bft) S-SW 213 0 min 0,000 mm 0,0 UV-I 0 W/m 3,8 C 3,7 C 9,7 km/h (2 Bft) 98,00 %
16.03.2017 01:32 5,1 C 91 % 1027,6 hPa 0,0 l/m 8,2 km/h (2 Bft) S-SW 207 0 min 0,000 mm 0,0 UV-I 0 W/m 3,8 C 3,5 C 11,3 km/h (2 Bft) 94,74 %
16.03.2017 01:34 5,0 C 91 % 1027,6 hPa 0,0 l/m 6,8 km/h (2 Bft) S-SW 210 0 min 0,000 mm 0,0 UV-I 0 W/m 3,7 C 4,7 C 9,7 km/h (2 Bft) 100,00 %
16.03.2017 01:36 4,9 C 91 % 1027,6 hPa 0,0 l/m 6,9 km/h (2 Bft) S-SW 207 0 min 0,000 mm 0,0 UV-I 0 W/m 3,6 C 4,5 C 11,3 km/h (2 Bft) 100,00 %
16.03.2017 01:38 4,9 C 91 % 1027,6 hPa 0,0 l/m 7,4 km/h (2 Bft) S-SW 205 0 min 0,000 mm 0,0 UV-I 0 W/m 3,6 C 4,0 C 11,3 km/h (2 Bft) 98,39 %
16.03.2017 01:40 4,8 C 91 % 1027,6 hPa 0,0 l/m 6,9 km/h (2 Bft) S-SW 213 0 min 0,000 mm 0,0 UV-I 0 W/m 3,5 C 4,4 C 9,7 km/h (2 Bft) 100,00 %
16.03.2017 01:42 4,8 C 91 % 1027,5 hPa 0,0 l/m 6,6 km/h (2 Bft) S-SW 196 0 min 0,000 mm 0,0 UV-I 0 W/m 3,5 C 4,6 C 9,7 km/h (2 Bft) 96,00 %
16.03.2017 01:44 4,7 C 91 % 1027,5 hPa 0,0 l/m 6,4 km/h (2 Bft) S-SW 198 0 min 0,000 mm 0,0 UV-I 0 W/m 3,4 C 4,7 C 9,7 km/h (2 Bft) 98,11 %
16.03.2017 01:46 4,7 C 91 % 1027,5 hPa 0,0 l/m 6,1 km/h (2 Bft) SW 217 0 min 0,000 mm 0,0 UV-I 0 W/m 3,4 C 4,7 C 8,0 km/h (2 Bft) 100,00 %
16.03.2017 01:48 4,7 C 91 % 1027,5 hPa 0,0 l/m 6,8 km/h (2 Bft) S-SW 211 0 min 0,000 mm 0,0 UV-I 0 W/m 3,4 C 4,4 C 9,7 km/h (2 Bft) 97,73 %
16.03.2017 01:50 4,7 C 92 % 1027,5 hPa 0,0 l/m 6,4 km/h (2 Bft) S-SW 207 0 min 0,000 mm 0,0 UV-I 0 W/m 3,5 C 4,7 C 8,0 km/h (2 Bft) 98,11 %
16.03.2017 01:52 4,7 C 92 % 1027,5 hPa 0,0 l/m 6,9 km/h (2 Bft) S-SW 204 0 min 0,000 mm 0,0 UV-I 0 W/m 3,5 C 4,3 C 9,7 km/h (2 Bft) 100,00 %
16.03.2017 01:54 4,7 C 92 % 1027,5 hPa 0,0 l/m 6,4 km/h (2 Bft) S-SW 205 0 min 0,000 mm 0,0 UV-I 0 W/m 3,5 C 4,7 C 9,7 km/h (2 Bft) 97,73 %
16.03.2017 01:56 4,7 C 92 % 1027,5 hPa 0,0 l/m 6,4 km/h (2 Bft) S-SW 204 0 min 0,000 mm 0,0 UV-I 0 W/m 3,5 C 4,7 C 9,7 km/h (2 Bft) 100,00 %
16.03.2017 01:58 4,7 C 92 % 1027,4 hPa 0,0 l/m 6,3 km/h (2 Bft) S-SW 204 0 min 0,000 mm 0,0 UV-I 0 W/m 3,5 C 4,7 C 8,0 km/h (2 Bft) 100,00 %
16.03.2017 02:00 4,7 C 92 % 1027,4 hPa 0,0 l/m 5,1 km/h (1 Bft) S-SW 207 0 min 0,000 mm 0,0 UV-I 0 W/m 3,5 C 4,7 C 9,7 km/h (2 Bft) 97,37 %
16.03.2017 02:02 4,6 C 92 % 1027,5 hPa 0,0 l/m 5,2 km/h (1 Bft) S-SW 204 0 min 0,000 mm 0,0 UV-I 0 W/m 3,4 C 4,6 C 8,0 km/h (2 Bft) 98,11 %
16.03.2017 02:04 4,6 C 92 % 1027,5 hPa 0,0 l/m 4,5 km/h (1 Bft) S-SW 198 0 min 0,000 mm 0,0 UV-I 0 W/m 3,4 C 4,6 C 6,4 km/h (2 Bft) 98,11 %
16.03.2017 02:06 4,6 C 92 % 1027,4 hPa 0,0 l/m 5,6 km/h (1 Bft) SW 215 0 min 0,000 mm 0,0 UV-I 0 W/m 3,4 C 4,6 C 9,7 km/h (2 Bft) 97,14 %
16.03.2017 02:08 4,6 C 92 % 1027,5 hPa 0,0 l/m 4,7 km/h (1 Bft) SW 215 0 min 0,000 mm 0,0 UV-I 0 W/m 3,4 C 4,6 C 6,4 km/h (2 Bft) 98,11 %
16.03.2017 02:10 4,7 C 92 % 1027,4 hPa 0,0 l/m 5,3 km/h (1 Bft) SW 215 0 min 0,000 mm 0,0 UV-I 0 W/m 3,5 C 4,7 C 6,4 km/h (2 Bft) 100,00 %
16.03.2017 02:12 4,6 C 92 % 1027,5 hPa 0,0 l/m 4,8 km/h (1 Bft) SW 215 0 min 0,000 mm 0,0 UV-I 0 W/m 3,4 C 4,6 C 6,4 km/h (2 Bft) 95,74 %
16.03.2017 02:14 4,6 C 92 % 1027,4 hPa 0,0 l/m 4,4 km/h (1 Bft) SW 215 0 min 0,000 mm 0,0 UV-I 0 W/m 3,4 C 4,6 C 6,4 km/h (2 Bft) 97,37 %
16.03.2017 02:16 4,5 C 92 % 1027,4 hPa 0,0 l/m 3,5 km/h (1 Bft) SW 215 0 min 0,000 mm 0,0 UV-I 0 W/m 3,3 C 4,5 C 4,8 km/h (1 Bft) 94,64 %
16.03.2017 02:18 4,5 C 92 % 1027,5 hPa 0,0 l/m 2,1 km/h (1 Bft) SW 215 0 min 0,000 mm 0,0 UV-I 0 W/m 3,3 C 4,5 C 4,8 km/h (1 Bft) 96,30 %
16.03.2017 02:20 4,4 C 92 % 1027,5 hPa 0,0 l/m 1,6 km/h (1 Bft) SW 215 0 min 0,000 mm 0,0 UV-I 0 W/m 3,2 C 4,4 C 4,8 km/h (1 Bft) 96,88 %
16.03.2017 02:22 4,4 C 92 % 1027,4 hPa 0,0 l/m 0,9 km/h (0 Bft) SW 215 0 min 0,000 mm 0,0 UV-I 0 W/m 3,2 C 4,4 C 1,6 km/h (1 Bft) 96,00 %
16.03.2017 02:24 4,3 C 92 % 1027,5 hPa 0,0 l/m 0,2 km/h (0 Bft) SW 215 0 min 0,000 mm 0,0 UV-I 0 W/m 3,1 C 4,3 C 3,2 km/h (1 Bft) 97,37 %
16.03.2017 02:26 4,2 C 92 % 1027,5 hPa 0,0 l/m 1,4 km/h (1 Bft) SW 215 0 min 0,000 mm 0,0 UV-I 0 W/m 3,0 C 4,2 C 4,8 km/h (1 Bft) 96,00 %
16.03.2017 02:28 3,9 C 91 % 1027,4 hPa 0,0 l/m 0,0 km/h (0 Bft) SW 215 0 min 0,000 mm 0,0 UV-I 0 W/m 2,6 C 3,9 C 0,0 km/h (0 Bft) 94,34 %
16.03.2017 02:30 3,8 C 92 % 1027,4 hPa 0,0 l/m 0,1 km/h (0 Bft) SW 215 0 min 0,000 mm 0,0 UV-I 0 W/m 2,6 C 3,8 C 1,6 km/h (1 Bft) 92,86 %
16.03.2017 02:32 3,7 C 92 % 1027,4 hPa 0,0 l/m 2,6 km/h (1 Bft) SW 215 0 min 0,000 mm 0,0 UV-I 0 W/m 2,5 C 3,7 C 3,2 km/h (1 Bft) 97,56 %
16.03.2017 02:34 3,8 C 93 % 1027,4 hPa 0,0 l/m 0,9 km/h (0 Bft) SW 215 0 min 0,000 mm 0,0 UV-I 0 W/m 2,8 C 3,8 C 3,2 km/h (1 Bft) 92,86 %
16.03.2017 02:36 3,8 C 93 % 1027,4 hPa 0,0 l/m 1,6 km/h (1 Bft) SW 215 0 min 0,000 mm 0,0 UV-I 0 W/m 2,8 C 3,8 C 4,8 km/h (1 Bft) 97,14 %
16.03.2017 02:38 3,7 C 93 % 1027,3 hPa 0,0 l/m 3,1 km/h (1 Bft) SW 215 0 min 0,000 mm 0,0 UV-I 0 W/m 2,7 C 3,7 C 4,8 km/h (1 Bft) 92,00 %
16.03.2017 02:40 3,6 C 93 % 1027,3 hPa 0,0 l/m 2,0 km/h (1 Bft) SW 215 0 min 0,000 mm 0,0 UV-I 0 W/m 2,6 C 3,6 C 4,8 km/h (1 Bft) 96,23 %
16.03.2017 02:42 3,6 C 93 % 1027,3 hPa 0,0 l/m 2,4 km/h (1 Bft) SW 215 0 min 0,000 mm 0,0 UV-I 0 W/m 2,6 C 3,6 C 3,2 km/h (1 Bft) 92,11 %
16.03.2017 02:44 3,6 C 93 % 1027,3 hPa 0,0 l/m 2,4 km/h (1 Bft) SW 215 0 min 0,000 mm 0,0 UV-I 0 W/m 2,6 C 3,6 C 3,2 km/h (1 Bft) 94,34 %
16.03.2017 02:46 3,6 C 94 % 1027,3 hPa 0,0 l/m 2,5 km/h (1 Bft) SW 215 0 min 0,000 mm 0,0 UV-I 0 W/m 2,7 C 3,6 C 3,2 km/h (1 Bft) 91,49 %
16.03.2017 02:48 3,6 C 94 % 1027,4 hPa 0,0 l/m 3,1 km/h (1 Bft) SW 215 0 min 0,000 mm 0,0 UV-I 0 W/m 2,7 C 3,6 C 4,8 km/h (1 Bft) 94,34 %
16.03.2017 02:50 3,6 C 93 % 1027,3 hPa 0,0 l/m 3,3 km/h (1 Bft) SW 215 0 min 0,000 mm 0,0 UV-I 0 W/m 2,6 C 3,6 C 4,8 km/h (1 Bft) 97,37 %
16.03.2017 02:52 3,6 C 94 % 1027,3 hPa 0,0 l/m 4,2 km/h (1 Bft) SW 215 0 min 0,000 mm 0,0 UV-I 0 W/m 2,7 C 3,6 C 6,4 km/h (2 Bft) 92,00 %
16.03.2017 02:54 3,6 C 94 % 1027,3 hPa 0,0 l/m 3,5 km/h (1 Bft) SW 215 0 min 0,000 mm 0,0 UV-I 0 W/m 2,7 C 3,6 C 4,8 km/h (1 Bft) 92,00 %
16.03.2017 02:56 3,4 C 93 % 1027,2 hPa 0,0 l/m 1,1 km/h (1 Bft) SW 215 0 min 0,000 mm 0,0 UV-I 0 W/m 2,4 C 3,4 C 3,2 km/h (1 Bft) 94,00 %
16.03.2017 02:58 3,3 C 93 % 1027,3 hPa 0,0 l/m 0,6 km/h (0 Bft) SW 215 0 min 0,000 mm 0,0 UV-I 0 W/m 2,3 C 3,3 C 3,2 km/h (1 Bft) 92,68 %
16.03.2017 03:00 3,3 C 94 % 1027,2 hPa 0,0 l/m 0,1 km/h (0 Bft) SW 215 0 min 0,000 mm 0,0 UV-I 0 W/m 2,4 C 3,3 C 1,6 km/h (1 Bft) 88,00 %
16.03.2017 03:02 3,3 C 94 % 1027,3 hPa 0,0 l/m 0,5 km/h (0 Bft) SW 215 0 min 0,000 mm 0,0 UV-I 0 W/m 2,4 C 3,3 C 3,2 km/h (1 Bft) 89,47 %
16.03.2017 03:04 3,3 C 94 % 1027,3 hPa 0,0 l/m 1,2 km/h (1 Bft) SW 215 0 min 0,000 mm 0,0 UV-I 0 W/m 2,4 C 3,3 C 1,6 km/h (1 Bft) 94,34 %
16.03.2017 03:06 3,4 C 94 % 1027,2 hPa 0,0 l/m 0,4 km/h (0 Bft) SW 215 0 min 0,000 mm 0,0 UV-I 0 W/m 2,5 C 3,4 C 1,6 km/h (1 Bft) 95,45 %
16.03.2017 03:08 3,4 C 94 % 1027,2 hPa 0,0 l/m 0,7 km/h (0 Bft) SW 215 0 min 0,000 mm 0,0 UV-I 0 W/m 2,5 C 3,4 C 1,6 km/h (1 Bft) 95,74 %
16.03.2017 03:10 3,4 C 94 % 1027,2 hPa 0,0 l/m 1,5 km/h (1 Bft) SW 215 0 min 0,000 mm 0,0 UV-I 0 W/m 2,5 C 3,4 C 3,2 km/h (1 Bft) 96,00 %
16.03.2017 03:12 3,4 C 94 % 1027,2 hPa 0,0 l/m 2,0 km/h (1 Bft) SW 215 0 min 0,000 mm 0,0 UV-I 0 W/m 2,5 C 3,4 C 3,2 km/h (1 Bft) 94,44 %
16.03.2017 03:14 3,4 C 94 % 1027,2 hPa 0,0 l/m 2,2 km/h (1 Bft) SW 215 0 min 0,000 mm 0,0 UV-I 0 W/m 2,5 C 3,4 C 3,2 km/h (1 Bft) 94,34 %
16.03.2017 03:16 3,3 C 94 % 1027,2 hPa 0,0 l/m 2,1 km/h (1 Bft) SW 215 0 min 0,000 mm 0,0 UV-I 0 W/m 2,4 C 3,3 C 4,8 km/h (1 Bft) 94,00 %
16.03.2017 03:18 3,2 C 94 % 1027,1 hPa 0,0 l/m 2,0 km/h (1 Bft) SW 215 0 min 0,000 mm 0,0 UV-I 0 W/m 2,3 C 3,2 C 3,2 km/h (1 Bft) 98,00 %
16.03.2017 03:20 3,1 C 94 % 1027,1 hPa 0,0 l/m 1,4 km/h (1 Bft) SW 215 0 min 0,000 mm 0,0 UV-I 0 W/m 2,2 C 3,1 C 3,2 km/h (1 Bft) 97,56 %
16.03.2017 03:22 3,0 C 94 % 1027,1 hPa 0,0 l/m 1,5 km/h (1 Bft) SW 215 0 min 0,000 mm 0,0 UV-I 0 W/m 2,1 C 3,0 C 4,8 km/h (1 Bft) 97,87 %
16.03.2017 03:24 2,9 C 94 % 1027,1 hPa 0,0 l/m 3,2 km/h (1 Bft) SW 215 0 min 0,000 mm 0,0 UV-I 0 W/m 2,0 C 2,9 C 4,8 km/h (1 Bft) 98,00 %
16.03.2017 03:26 2,9 C 94 % 1027,1 hPa 0,0 l/m 2,7 km/h (1 Bft) SW 216 0 min 0,000 mm 0,0 UV-I 0 W/m 2,0 C 2,9 C 4,8 km/h (1 Bft) 98,11 %
16.03.2017 03:28 2,8 C 94 % 1027,0 hPa 0,0 l/m 3,8 km/h (1 Bft) SW 216 0 min 0,000 mm 0,0 UV-I 0 W/m 1,9 C 2,8 C 6,4 km/h (2 Bft) 97,14 %
16.03.2017 03:30 2,8 C 94 % 1027,1 hPa 0,0 l/m 4,1 km/h (1 Bft) SW 216 0 min 0,000 mm 0,0 UV-I 0 W/m 1,9 C 2,8 C 6,4 km/h (2 Bft) 96,23 %
16.03.2017 03:32 2,8 C 94 % 1027,0 hPa 0,0 l/m 2,4 km/h (1 Bft) SW 216 0 min 0,000 mm 0,0 UV-I 0 W/m 1,9 C 2,8 C 6,4 km/h (2 Bft) 98,00 %
16.03.2017 03:34 2,7 C 94 % 1027,1 hPa 0,0 l/m 1,7 km/h (1 Bft) SW 216 0 min 0,000 mm 0,0 UV-I 0 W/m 1,8 C 2,7 C 3,2 km/h (1 Bft) 97,37 %
16.03.2017 03:36 2,7 C 94 % 1027,0 hPa 0,0 l/m 1,8 km/h (1 Bft) SW 216 0 min 0,000 mm 0,0 UV-I 0 W/m 1,8 C 2,7 C 3,2 km/h (1 Bft) 100,00 %
16.03.2017 03:38 2,7 C 94 % 1027,0 hPa 0,0 l/m 2,8 km/h (1 Bft) SW 215 0 min 0,000 mm 0,0 UV-I 0 W/m 1,8 C 2,7 C 4,8 km/h (1 Bft) 100,00 %
16.03.2017 03:40 2,7 C 95 % 1026,9 hPa 0,0 l/m 2,8 km/h (1 Bft) SW 215 0 min 0,000 mm 0,0 UV-I 0 W/m 2,0 C 2,7 C 4,8 km/h (1 Bft) 97,87 %
16.03.2017 03:42 2,7 C 95 % 1026,8 hPa 0,0 l/m 3,8 km/h (1 Bft) S-SW 213 0 min 0,000 mm 0,0 UV-I 0 W/m 2,0 C 2,7 C 6,4 km/h (2 Bft) 97,73 %
16.03.2017 03:44 2,8 C 95 % 1026,8 hPa 0,0 l/m 4,6 km/h (1 Bft) S-SW 198 0 min 0,000 mm 0,0 UV-I 0 W/m 2,1 C 2,8 C 6,4 km/h (2 Bft) 100,00 %
16.03.2017 03:46 2,9 C 95 % 1026,8 hPa 0,0 l/m 5,2 km/h (1 Bft) S-SW 201 0 min 0,000 mm 0,0 UV-I 0 W/m 2,2 C 2,9 C 8,0 km/h (2 Bft) 96,23 %
16.03.2017 03:48 3,1 C 95 % 1026,8 hPa 0,0 l/m 4,5 km/h (1 Bft) S-SW 205 0 min 0,000 mm 0,0 UV-I 0 W/m 2,4 C 3,1 C 8,0 km/h (2 Bft) 92,68 %
16.03.2017 03:50 3,1 C 95 % 1026,8 hPa 0,0 l/m 3,7 km/h (1 Bft) S 186 0 min 0,000 mm 0,0 UV-I 0 W/m 2,4 C 3,1 C 8,0 km/h (2 Bft) 100,00 %
16.03.2017 03:52 3,2 C 95 % 1026,8 hPa 0,0 l/m 2,9 km/h (1 Bft) S 182 0 min 0,000 mm 0,0 UV-I 0 W/m 2,5 C 3,2 C 4,8 km/h (1 Bft) 98,11 %
16.03.2017 03:54 3,2 C 95 % 1026,8 hPa 0,0 l/m 3,5 km/h (1 Bft) S 187 0 min 0,000 mm 0,0 UV-I 0 W/m 2,5 C 3,2 C 6,4 km/h (2 Bft) 100,00 %
16.03.2017 03:56 3,2 C 95 % 1026,8 hPa 0,0 l/m 5,2 km/h (1 Bft) S-SW 198 0 min 0,000 mm 0,0 UV-I 0 W/m 2,5 C 3,2 C 8,0 km/h (2 Bft) 100,00 %
16.03.2017 03:58 3,3 C 95 % 1026,8 hPa 0,0 l/m 5,3 km/h (1 Bft) S 190 0 min 0,000 mm 0,0 UV-I 0 W/m 2,6 C 3,3 C 8,0 km/h (2 Bft) 100,00 %
16.03.2017 04:00 3,4 C 95 % 1026,8 hPa 0,0 l/m 4,7 km/h (1 Bft) S-SW 192 0 min 0,000 mm 0,0 UV-I 0 W/m 2,7 C 3,4 C 6,4 km/h (2 Bft) 100,00 %
16.03.2017 04:02 3,4 C 95 % 1026,8 hPa 0,0 l/m 4,7 km/h (1 Bft) S-SW 192 0 min 0,000 mm 0,0 UV-I 0 W/m 2,7 C 3,4 C 6,4 km/h (2 Bft) 97,37 %
16.03.2017 04:04 3,3 C 95 % 1026,8 hPa 0,0 l/m 4,1 km/h (1 Bft) S-SW 192 0 min 0,000 mm 0,0 UV-I 0 W/m 2,6 C 3,3 C 4,8 km/h (1 Bft) 100,00 %
16.03.2017 04:06 3,3 C 95 % 1026,7 hPa 0,0 l/m 3,2 km/h (1 Bft) S-SW 192 0 min 0,000 mm 0,0 UV-I 0 W/m 2,6 C 3,3 C 4,8 km/h (1 Bft) 98,31 %
16.03.2017 04:08 3,3 C 95 % 1026,7 hPa 0,0 l/m 4,0 km/h (1 Bft) S-SW 192 0 min 0,000 mm 0,0 UV-I 0 W/m 2,6 C 3,3 C 4,8 km/h (1 Bft) 100,00 %
16.03.2017 04:10 3,2 C 95 % 1026,7 hPa 0,0 l/m 3,7 km/h (1 Bft) S-SW 192 0 min 0,000 mm 0,0 UV-I 0 W/m 2,5 C 3,2 C 4,8 km/h (1 Bft) 100,00 %
16.03.2017 04:12 3,2 C 95 % 1026,6 hPa 0,0 l/m 3,6 km/h (1 Bft) S-SW 192 0 min 0,000 mm 0,0 UV-I 0 W/m 2,5 C 3,2 C 4,8 km/h (1 Bft) 100,00 %
16.03.2017 04:14 3,1 C 94 % 1026,6 hPa 0,0 l/m 4,4 km/h (1 Bft) S-SW 192 0 min 0,000 mm 0,0 UV-I 0 W/m 2,2 C 3,1 C 4,8 km/h (1 Bft) 97,37 %
16.03.2017 04:16 3,1 C 95 % 1026,5 hPa 0,0 l/m 4,3 km/h (1 Bft) S-SW 192 0 min 0,000 mm 0,0 UV-I 0 W/m 2,4 C 3,1 C 6,4 km/h (2 Bft) 95,45 %
16.03.2017 04:18 3,1 C 95 % 1026,7 hPa 0,0 l/m 3,7 km/h (1 Bft) S-SW 192 0 min 0,000 mm 0,0 UV-I 0 W/m 2,4 C 3,1 C 4,8 km/h (1 Bft) 96,23 %
16.03.2017 04:20 3,1 C 95 % 1026,7 hPa 0,0 l/m 3,5 km/h (1 Bft) S-SW 192 0 min 0,000 mm 0,0 UV-I 0 W/m 2,4 C 3,1 C 4,8 km/h (1 Bft) 95,74 %
16.03.2017 04:22 3,0 C 95 % 1026,7 hPa 0,0 l/m 2,6 km/h (1 Bft) S-SW 192 0 min 0,000 mm 0,0 UV-I 0 W/m 2,3 C 3,0 C 3,2 km/h (1 Bft) 100,00 %
16.03.2017 04:24 2,9 C 95 % 1026,7 hPa 0,0 l/m 2,8 km/h (1 Bft) S-SW 192 0 min 0,000 mm 0,0 UV-I 0 W/m 2,2 C 2,9 C 3,2 km/h (1 Bft) 92,68 %
16.03.2017 04:26 2,9 C 95 % 1026,7 hPa 0,0 l/m 3,0 km/h (1 Bft) S-SW 192 0 min 0,000 mm 0,0 UV-I 0 W/m 2,2 C 2,9 C 4,8 km/h (1 Bft) 100,00 %
16.03.2017 04:28 2,9 C 95 % 1026,7 hPa 0,0 l/m 2,2 km/h (1 Bft) S-SW 192 0 min 0,000 mm 0,0 UV-I 0 W/m 2,2 C 2,9 C 3,2 km/h (1 Bft) 98,00 %
16.03.2017 04:30 2,9 C 95 % 1026,6 hPa 0,0 l/m 1,6 km/h (1 Bft) S-SW 192 0 min 0,000 mm 0,0 UV-I 0 W/m 2,2 C 2,9 C 3,2 km/h (1 Bft) 98,08 %
16.03.2017 04:32 2,9 C 95 % 1026,7 hPa 0,0 l/m 0,0 km/h (0 Bft) S-SW 192 0 min 0,000 mm 0,0 UV-I 0 W/m 2,2 C 2,9 C 1,6 km/h (1 Bft) 100,00 %
16.03.2017 04:34 2,9 C 95 % 1026,7 hPa 0,0 l/m 0,0 km/h (0 Bft) S-SW 192 0 min 0,000 mm 0,0 UV-I 0 W/m 2,2 C 2,9 C 0,0 km/h (0 Bft) 100,00 %
16.03.2017 04:36 2,9 C 95 % 1026,7 hPa 0,0 l/m 0,0 km/h (0 Bft) S-SW 192 0 min 0,000 mm 0,0 UV-I 0 W/m 2,2 C 2,9 C 0,0 km/h (0 Bft) 98,00 %
16.03.2017 04:38 2,9 C 95 % 1026,7 hPa 0,0 l/m 0,0 km/h (0 Bft) S-SW 192 0 min 0,000 mm 0,0 UV-I 0 W/m 2,2 C 2,9 C 0,0 km/h (0 Bft) 96,00 %
16.03.2017 04:40 2,9 C 95 % 1026,7 hPa 0,0 l/m 0,2 km/h (0 Bft) S-SW 192 0 min 0,000 mm 0,0 UV-I 0 W/m 2,2 C 2,9 C 1,6 km/h (1 Bft) 100,00 %
16.03.2017 04:42 2,9 C 95 % 1026,7 hPa 0,0 l/m 0,4 km/h (0 Bft) S-SW 192 0 min 0,000 mm 0,0 UV-I 0 W/m 2,2 C 2,9 C 1,6 km/h (1 Bft) 98,15 %
16.03.2017 04:44 3,0 C 95 % 1026,6 hPa 0,0 l/m 0,0 km/h (0 Bft) S-SW 192 0 min 0,000 mm 0,0 UV-I 0 W/m 2,3 C 3,0 C 0,0 km/h (0 Bft) 100,00 %
16.03.2017 04:46 3,0 C 95 % 1026,7 hPa 0,0 l/m 0,9 km/h (0 Bft) S-SW 192 0 min 0,000 mm 0,0 UV-I 0 W/m 2,3 C 3,0 C 1,6 km/h (1 Bft) 97,56 %
16.03.2017 04:48 3,1 C 95 % 1026,7 hPa 0,0 l/m 0,3 km/h (0 Bft) S-SW 192 0 min 0,000 mm 0,0 UV-I 0 W/m 2,4 C 3,1 C 1,6 km/h (1 Bft) 98,00 %
16.03.2017 04:50 3,1 C 95 % 1026,7 hPa 0,0 l/m 0,0 km/h (0 Bft) S-SW 192 0 min 0,000 mm 0,0 UV-I 0 W/m 2,4 C 3,1 C 0,0 km/h (0 Bft) 96,23 %
16.03.2017 04:52 2,9 C 95 % 1026,7 hPa 0,0 l/m 0,0 km/h (0 Bft) S-SW 192 0 min 0,000 mm 0,0 UV-I 0 W/m 2,2 C 2,9 C 0,0 km/h (0 Bft) 95,12 %
16.03.2017 04:54 3,0 C 95 % 1026,7 hPa 0,0 l/m 0,2 km/h (0 Bft) S-SW 192 0 min 0,000 mm 0,0 UV-I 0 W/m 2,3 C 3,0 C 1,6 km/h (1 Bft) 93,62 %
16.03.2017 04:56 3,0 C 95 % 1026,7 hPa 0,0 l/m 0,7 km/h (0 Bft) S-SW 192 0 min 0,000 mm 0,0 UV-I 0 W/m 2,3 C 3,0 C 1,6 km/h (1 Bft) 96,00 %
16.03.2017 04:58 2,9 C 95 % 1026,7 hPa 0,0 l/m 0,0 km/h (0 Bft) S-SW 192 0 min 0,000 mm 0,0 UV-I 0 W/m 2,2 C 2,9 C 0,0 km/h (0 Bft) 96,00 %
16.03.2017 05:00 2,7 C 94 % 1026,7 hPa 0,0 l/m 0,1 km/h (0 Bft) S-SW 192 0 min 0,000 mm 0,0 UV-I 0 W/m 1,8 C 2,7 C 1,6 km/h (1 Bft) 97,14 %
16.03.2017 05:02 2,7 C 95 % 1026,6 hPa 0,0 l/m 0,0 km/h (0 Bft) S-SW 192 0 min 0,000 mm 0,0 UV-I 0 W/m 2,0 C 2,7 C 0,0 km/h (0 Bft) 95,74 %
16.03.2017 05:04 2,8 C 95 % 1026,5 hPa 0,0 l/m 0,3 km/h (0 Bft) S-SW 192 0 min 0,000 mm 0,0 UV-I 0 W/m 2,1 C 2,8 C 1,6 km/h (1 Bft) 96,00 %
16.03.2017 05:06 2,9 C 96 % 1026,6 hPa 0,0 l/m 0,7 km/h (0 Bft) S-SW 192 0 min 0,000 mm 0,0 UV-I 0 W/m 2,3 C 2,9 C 1,6 km/h (1 Bft) 98,11 %
16.03.2017 05:08 3,1 C 96 % 1026,6 hPa 0,0 l/m 0,5 km/h (0 Bft) S-SW 192 0 min 0,000 mm 0,0 UV-I 0 W/m 2,5 C 3,1 C 1,6 km/h (1 Bft) 97,87 %
16.03.2017 05:10 3,1 C 95 % 1026,6 hPa 0,0 l/m 0,0 km/h (0 Bft) S-SW 192 0 min 0,000 mm 0,0 UV-I 0 W/m 2,4 C 3,1 C 0,0 km/h (0 Bft) 95,24 %
16.03.2017 05:12 2,9 C 95 % 1026,6 hPa 0,0 l/m 0,2 km/h (0 Bft) S-SW 192 0 min 0,000 mm 0,0 UV-I 0 W/m 2,2 C 2,9 C 1,6 km/h (1 Bft) 92,31 %
16.03.2017 05:14 2,9 C 95 % 1026,6 hPa 0,0 l/m 1,0 km/h (0 Bft) S-SW 192 0 min 0,000 mm 0,0 UV-I 0 W/m 2,2 C 2,9 C 1,6 km/h (1 Bft) 94,87 %
16.03.2017 05:16 2,9 C 95 % 1026,5 hPa 0,0 l/m 1,3 km/h (1 Bft) S-SW 192 0 min 0,000 mm 0,0 UV-I 0 W/m 2,2 C 2,9 C 3,2 km/h (1 Bft) 92,86 %
16.03.2017 05:18 2,8 C 95 % 1026,6 hPa 0,0 l/m 1,7 km/h (1 Bft) S-SW 192 0 min 0,000 mm 0,0 UV-I 0 W/m 2,1 C 2,8 C 3,2 km/h (1 Bft) 97,56 %
16.03.2017 05:20 2,8 C 95 % 1026,6 hPa 0,0 l/m 2,1 km/h (1 Bft) S-SW 194 0 min 0,000 mm 0,0 UV-I 0 W/m 2,1 C 2,8 C 4,8 km/h (1 Bft) 94,34 %
16.03.2017 05:22 2,8 C 95 % 1026,7 hPa 0,0 l/m 3,3 km/h (1 Bft) S-SW 199 0 min 0,000 mm 0,0 UV-I 0 W/m 2,1 C 2,8 C 4,8 km/h (1 Bft) 97,87 %
16.03.2017 05:24 2,8 C 96 % 1026,7 hPa 0,0 l/m 2,9 km/h (1 Bft) S-SW 199 0 min 0,000 mm 0,0 UV-I 0 W/m 2,2 C 2,8 C 3,2 km/h (1 Bft) 88,57 %
16.03.2017 05:26 2,8 C 96 % 1026,7 hPa 0,0 l/m 2,2 km/h (1 Bft) S-SW 199 0 min 0,000 mm 0,0 UV-I 0 W/m 2,2 C 2,8 C 3,2 km/h (1 Bft) 98,11 %
16.03.2017 05:28 2,9 C 96 % 1026,7 hPa 0,0 l/m 2,2 km/h (1 Bft) S-SW 199 0 min 0,000 mm 0,0 UV-I 0 W/m 2,3 C 2,9 C 4,8 km/h (1 Bft) 95,12 %
16.03.2017 05:30 2,9 C 95 % 1026,7 hPa 0,0 l/m 3,4 km/h (1 Bft) S-SW 199 0 min 0,000 mm 0,0 UV-I 0 W/m 2,2 C 2,9 C 6,4 km/h (2 Bft) 96,23 %
16.03.2017 05:32 2,8 C 95 % 1026,7 hPa 0,0 l/m 3,1 km/h (1 Bft) S-SW 199 0 min 0,000 mm 0,0 UV-I 0 W/m 2,1 C 2,8 C 4,8 km/h (1 Bft) 100,00 %
16.03.2017 05:34 2,6 C 95 % 1026,7 hPa 0,0 l/m 2,2 km/h (1 Bft) S-SW 199 0 min 0,000 mm 0,0 UV-I 0 W/m 1,9 C 2,6 C 4,8 km/h (1 Bft) 98,11 %
16.03.2017 05:36 2,3 C 95 % 1026,7 hPa 0,0 l/m 2,5 km/h (1 Bft) S-SW 199 0 min 0,000 mm 0,0 UV-I 0 W/m 1,6 C 2,3 C 4,8 km/h (1 Bft) 96,00 %
16.03.2017 05:38 2,2 C 95 % 1026,7 hPa 0,0 l/m 3,4 km/h (1 Bft) S-SW 199 0 min 0,000 mm 0,0 UV-I 0 W/m 1,5 C 2,2 C 6,4 km/h (2 Bft) 94,74 %
16.03.2017 05:40 2,2 C 95 % 1026,7 hPa 0,0 l/m 3,2 km/h (1 Bft) S-SW 199 0 min 0,000 mm 0,0 UV-I 0 W/m 1,5 C 2,2 C 6,4 km/h (2 Bft) 97,87 %
16.03.2017 05:42 2,3 C 95 % 1026,7 hPa 0,0 l/m 2,0 km/h (1 Bft) S-SW 199 0 min 0,000 mm 0,0 UV-I 0 W/m 1,6 C 2,3 C 3,2 km/h (1 Bft) 95,74 %
16.03.2017 05:44 2,2 C 95 % 1026,7 hPa 0,0 l/m 1,0 km/h (0 Bft) S-SW 199 0 min 0,000 mm 0,0 UV-I 0 W/m 1,5 C 2,2 C 3,2 km/h (1 Bft) 96,00 %
16.03.2017 05:46 2,1 C 95 % 1026,7 hPa 0,0 l/m 0,7 km/h (0 Bft) S-SW 199 0 min 0,000 mm 0,0 UV-I 0 W/m 1,4 C 2,1 C 3,2 km/h (1 Bft) 94,87 %
16.03.2017 05:48 2,1 C 95 % 1026,8 hPa 0,0 l/m 1,3 km/h (1 Bft) S-SW 199 0 min 0,000 mm 0,0 UV-I 0 W/m 1,4 C 2,1 C 3,2 km/h (1 Bft) 89,66 %
16.03.2017 05:50 2,1 C 95 % 1026,8 hPa 0,0 l/m 1,0 km/h (0 Bft) S-SW 199 0 min 0,000 mm 0,0 UV-I 0 W/m 1,4 C 2,1 C 3,2 km/h (1 Bft) 98,00 %
16.03.2017 05:52 2,1 C 95 % 1026,7 hPa 0,0 l/m 0,1 km/h (0 Bft) S-SW 199 0 min 0,000 mm 0,0 UV-I 0 W/m 1,4 C 2,1 C 1,6 km/h (1 Bft) 97,44 %
16.03.2017 05:54 2,1 C 95 % 1026,8 hPa 0,0 l/m 0,7 km/h (0 Bft) S-SW 199 0 min 0,000 mm 0,0 UV-I 0 W/m 1,4 C 2,1 C 1,6 km/h (1 Bft) 98,11 %
16.03.2017 05:56 2,1 C 95 % 1026,7 hPa 0,0 l/m 2,3 km/h (1 Bft) S-SW 199 0 min 0,000 mm 0,0 UV-I 0 W/m 1,4 C 2,1 C 4,8 km/h (1 Bft) 100,00 %
16.03.2017 05:58 2,1 C 96 % 1026,7 hPa 0,0 l/m 2,7 km/h (1 Bft) S-SW 199 0 min 0,000 mm 0,0 UV-I 0 W/m 1,5 C 2,1 C 4,8 km/h (1 Bft) 97,87 %
16.03.2017 06:00 2,2 C 96 % 1026,7 hPa 0,0 l/m 1,1 km/h (1 Bft) S-SW 199 0 min 0,000 mm 0,0 UV-I 0 W/m 1,6 C 2,2 C 3,2 km/h (1 Bft) 96,23 %
16.03.2017 06:02 2,1 C 96 % 1026,6 hPa 0,0 l/m 0,4 km/h (0 Bft) S-SW 199 0 min 0,000 mm 0,0 UV-I 0 W/m 1,5 C 2,1 C 1,6 km/h (1 Bft) 100,00 %
16.03.2017 06:04 2,0 C 95 % 1026,7 hPa 0,0 l/m 0,6 km/h (0 Bft) S-SW 199 0 min 0,000 mm 0,0 UV-I 1 W/m 1,3 C 2,0 C 3,2 km/h (1 Bft) 96,23 %
16.03.2017 06:06 1,9 C 96 % 1026,6 hPa 0,0 l/m 0,4 km/h (0 Bft) S-SW 199 0 min 0,000 mm 0,0 UV-I 5 W/m 1,3 C 1,9 C 1,6 km/h (1 Bft) 100,00 %
16.03.2017 06:08 1,9 C 96 % 1026,6 hPa 0,0 l/m 1,8 km/h (1 Bft) S-SW 199 0 min 0,000 mm 0,0 UV-I 5 W/m 1,3 C 1,9 C 4,8 km/h (1 Bft) 95,74 %
16.03.2017 06:10 1,9 C 96 % 1026,6 hPa 0,0 l/m 4,2 km/h (1 Bft) S-SW 199 0 min 0,000 mm 0,0 UV-I 7 W/m 1,3 C 1,9 C 6,4 km/h (2 Bft) 97,37 %
16.03.2017 06:12 1,9 C 96 % 1026,5 hPa 0,0 l/m 4,0 km/h (1 Bft) S-SW 199 0 min 0,000 mm 0,0 UV-I 7 W/m 1,3 C 1,9 C 6,4 km/h (2 Bft) 100,00 %
16.03.2017 06:14 1,9 C 96 % 1026,5 hPa 0,0 l/m 3,7 km/h (1 Bft) S-SW 199 0 min 0,000 mm 0,0 UV-I 8 W/m 1,3 C 1,9 C 6,4 km/h (2 Bft) 97,37 %
16.03.2017 06:16 2,0 C 96 % 1026,5 hPa 0,0 l/m 2,3 km/h (1 Bft) S-SW 199 0 min 0,000 mm 0,0 UV-I 9 W/m 1,4 C 2,0 C 3,2 km/h (1 Bft) 100,00 %
16.03.2017 06:18 1,9 C 96 % 1026,5 hPa 0,0 l/m 3,4 km/h (1 Bft) S-SW 199 0 min 0,000 mm 0,0 UV-I 9 W/m 1,3 C 1,9 C 4,8 km/h (1 Bft) 98,00 %
16.03.2017 06:20 2,0 C 96 % 1026,4 hPa 0,0 l/m 1,3 km/h (1 Bft) S-SW 199 0 min 0,000 mm 0,0 UV-I 10 W/m 1,4 C 2,0 C 3,2 km/h (1 Bft) 94,29 %
16.03.2017 06:22 2,0 C 96 % 1026,4 hPa 0,0 l/m 1,9 km/h (1 Bft) S-SW 199 0 min 0,000 mm 0,0 UV-I 11 W/m 1,4 C 2,0 C 4,8 km/h (1 Bft) 98,00 %
16.03.2017 06:24 1,9 C 96 % 1026,4 hPa 0,0 l/m 2,5 km/h (1 Bft) S-SW 199 0 min 0,000 mm 0,0 UV-I 11 W/m 1,3 C 1,9 C 4,8 km/h (1 Bft) 94,00 %
16.03.2017 06:26 1,9 C 96 % 1026,4 hPa 0,0 l/m 4,5 km/h (1 Bft) S-SW 199 2 min 0,000 mm 0,0 UV-I 13 W/m 1,3 C 1,9 C 6,4 km/h (2 Bft) 100,00 %
16.03.2017 06:28 2,1 C 96 % 1026,3 hPa 0,0 l/m 4,5 km/h (1 Bft) S-SW 194 2 min 0,000 mm 0,0 UV-I 16 W/m 1,5 C 2,1 C 6,4 km/h (2 Bft) 100,00 %
16.03.2017 06:30 2,1 C 96 % 1026,3 hPa 0,0 l/m 5,1 km/h (1 Bft) S-SW 193 2 min 0,000 mm 0,0 UV-I 18 W/m 1,5 C 2,1 C 8,0 km/h (2 Bft) 97,56 %
16.03.2017 06:32 2,2 C 96 % 1026,3 hPa 0,0 l/m 5,1 km/h (1 Bft) S-SW 192 2 min 0,000 mm 0,0 UV-I 20 W/m 1,6 C 2,2 C 6,4 km/h (2 Bft) 92,45 %
16.03.2017 06:34 2,2 C 96 % 1026,3 hPa 0,0 l/m 4,6 km/h (1 Bft) S-SW 192 0 min 0,000 mm 0,0 UV-I 23 W/m 1,6 C 2,2 C 6,4 km/h (2 Bft) 98,00 %
16.03.2017 06:36 2,3 C 96 % 1026,3 hPa 0,0 l/m 5,7 km/h (1 Bft) S-SW 192 0 min 0,000 mm 0,0 UV-I 25 W/m 1,7 C 2,3 C 8,0 km/h (2 Bft) 97,87 %
16.03.2017 06:38 2,3 C 96 % 1026,3 hPa 0,0 l/m 4,4 km/h (1 Bft) S-SW 192 0 min 0,000 mm 0,0 UV-I 26 W/m 1,7 C 2,3 C 6,4 km/h (2 Bft) 95,12 %
16.03.2017 06:40 2,3 C 96 % 1026,3 hPa 0,0 l/m 4,6 km/h (1 Bft) S-SW 193 0 min 0,000 mm 0,0 UV-I 26 W/m 1,7 C 2,3 C 6,4 km/h (2 Bft) 96,00 %
16.03.2017 06:42 2,3 C 96 % 1026,3 hPa 0,0 l/m 3,9 km/h (1 Bft) S-SW 193 0 min 0,000 mm 0,0 UV-I 27 W/m 1,7 C 2,3 C 4,8 km/h (1 Bft) 94,74 %
16.03.2017 06:44 2,3 C 96 % 1026,3 hPa 0,0 l/m 3,0 km/h (1 Bft) S-SW 193 0 min 0,000 mm 0,0 UV-I 28 W/m 1,7 C 2,3 C 4,8 km/h (1 Bft) 98,11 %
16.03.2017 06:46 2,3 C 96 % 1026,3 hPa 0,0 l/m 3,9 km/h (1 Bft) S-SW 196 0 min 0,000 mm 0,0 UV-I 31 W/m 1,7 C 2,3 C 6,4 km/h (2 Bft) 94,34 %
16.03.2017 06:48 2,3 C 96 % 1026,3 hPa 0,0 l/m 4,9 km/h (1 Bft) S-SW 209 0 min 0,000 mm 0,0 UV-I 34 W/m 1,7 C 2,3 C 6,4 km/h (2 Bft) 100,00 %
16.03.2017 06:50 2,4 C 96 % 1026,3 hPa 0,0 l/m 5,4 km/h (1 Bft) S-SW 206 0 min 0,000 mm 0,0 UV-I 35 W/m 1,8 C 2,4 C 8,0 km/h (2 Bft) 97,14 %
16.03.2017 06:52 2,3 C 96 % 1026,2 hPa 0,0 l/m 4,8 km/h (1 Bft) SW 218 0 min 0,000 mm 0,0 UV-I 36 W/m 1,7 C 2,3 C 8,0 km/h (2 Bft) 98,11 %
16.03.2017 06:54 2,4 C 96 % 1026,2 hPa 0,0 l/m 4,4 km/h (1 Bft) SW 227 0 min 0,000 mm 0,0 UV-I 38 W/m 1,8 C 2,4 C 6,4 km/h (2 Bft) 95,74 %
16.03.2017 06:56 2,4 C 96 % 1026,1 hPa 0,0 l/m 4,4 km/h (1 Bft) SW 219 0 min 0,000 mm 0,0 UV-I 40 W/m 1,8 C 2,4 C 6,4 km/h (2 Bft) 96,00 %
16.03.2017 06:58 2,5 C 96 % 1026,1 hPa 0,0 l/m 4,2 km/h (1 Bft) S-SW 210 0 min 0,000 mm 0,0 UV-I 45 W/m 1,9 C 2,5 C 8,0 km/h (2 Bft) 95,12 %
16.03.2017 07:00 2,6 C 96 % 1026,1 hPa 0,0 l/m 4,3 km/h (1 Bft) S-SW 210 0 min 0,000 mm 0,0 UV-I 50 W/m 2,0 C 2,6 C 8,0 km/h (2 Bft) 98,11 %
16.03.2017 07:02 2,7 C 96 % 1026,0 hPa 0,0 l/m 3,8 km/h (1 Bft) S-SW 210 0 min 0,000 mm 0,0 UV-I 54 W/m 2,1 C 2,7 C 6,4 km/h (2 Bft) 93,18 %
16.03.2017 07:04 2,7 C 96 % 1026,0 hPa 0,0 l/m 4,6 km/h (1 Bft) S-SW 210 0 min 0,000 mm 0,0 UV-I 55 W/m 2,1 C 2,7 C 6,4 km/h (2 Bft) 90,91 %
16.03.2017 07:06 2,8 C 96 % 1026,0 hPa 0,0 l/m 5,6 km/h (1 Bft) S-SW 209 0 min 0,000 mm 0,0 UV-I 60 W/m 2,2 C 2,8 C 8,0 km/h (2 Bft) 95,24 %
16.03.2017 07:08 2,8 C 96 % 1026,0 hPa 0,0 l/m 5,1 km/h (1 Bft) S-SW 209 0 min 0,000 mm 0,0 UV-I 67 W/m 2,2 C 2,8 C 8,0 km/h (2 Bft) 94,34 %
16.03.2017 07:10 2,9 C 96 % 1026,0 hPa 0,0 l/m 5,8 km/h (2 Bft) S-SW 211 0 min 0,000 mm 0,0 UV-I 68 W/m 2,3 C 2,9 C 8,0 km/h (2 Bft) 90,91 %
16.03.2017 07:12 3,0 C 96 % 1026,0 hPa 0,0 l/m 5,4 km/h (1 Bft) S-SW 195 0 min 0,000 mm 0,0 UV-I 67 W/m 2,4 C 3,0 C 8,0 km/h (2 Bft) 88,00 %
16.03.2017 07:14 3,0 C 96 % 1026,0 hPa 0,0 l/m 4,9 km/h (1 Bft) S-SW 209 0 min 0,000 mm 0,0 UV-I 69 W/m 2,4 C 3,0 C 9,7 km/h (2 Bft) 95,45 %
16.03.2017 07:16 3,1 C 96 % 1026,0 hPa 0,0 l/m 4,9 km/h (1 Bft) S-SW 204 0 min 0,000 mm 0,0 UV-I 72 W/m 2,5 C 3,1 C 8,0 km/h (2 Bft) 92,45 %
16.03.2017 07:18 3,2 C 96 % 1026,0 hPa 0,0 l/m 4,9 km/h (1 Bft) SW 220 0 min 0,000 mm 0,0 UV-I 78 W/m 2,6 C 3,2 C 6,4 km/h (2 Bft) 90,00 %
16.03.2017 07:20 3,2 C 96 % 1026,1 hPa 0,0 l/m 6,0 km/h (2 Bft) S-SW 196 0 min 0,000 mm 0,0 UV-I 84 W/m 2,6 C 3,2 C 8,0 km/h (2 Bft) 92,68 %
16.03.2017 07:22 3,3 C 96 % 1026,1 hPa 0,0 l/m 5,3 km/h (1 Bft) S-SW 205 0 min 0,000 mm 0,0 UV-I 88 W/m 2,7 C 3,3 C 8,0 km/h (2 Bft) 89,36 %
16.03.2017 07:24 3,3 C 96 % 1026,1 hPa 0,0 l/m 3,6 km/h (1 Bft) SW 223 0 min 0,000 mm 0,0 UV-I 92 W/m 2,7 C 3,3 C 6,4 km/h (2 Bft) 94,00 %
16.03.2017 07:26 3,4 C 96 % 1026,2 hPa 0,0 l/m 4,3 km/h (1 Bft) SW 231 0 min 0,000 mm 0,0 UV-I 95 W/m 2,8 C 3,4 C 6,4 km/h (2 Bft) 92,68 %
16.03.2017 07:28 3,5 C 96 % 1026,1 hPa 0,0 l/m 5,3 km/h (1 Bft) SW 236 0 min 0,000 mm 0,0 UV-I 99 W/m 2,9 C 3,5 C 8,0 km/h (2 Bft) 92,45 %
16.03.2017 07:30 3,5 C 96 % 1026,1 hPa 0,0 l/m 4,5 km/h (1 Bft) SW 236 0 min 0,000 mm 0,0 UV-I 104 W/m 2,9 C 3,5 C 6,4 km/h (2 Bft) 91,49 %
16.03.2017 07:32 3,6 C 96 % 1026,1 hPa 0,0 l/m 5,4 km/h (1 Bft) SW 235 0 min 0,000 mm 0,0 UV-I 111 W/m 3,0 C 3,6 C 8,0 km/h (2 Bft) 94,74 %
16.03.2017 07:34 3,6 C 96 % 1026,1 hPa 0,0 l/m 4,3 km/h (1 Bft) SW 235 0 min 0,000 mm 0,0 UV-I 115 W/m 3,0 C 3,6 C 6,4 km/h (2 Bft) 92,45 %
16.03.2017 07:36 3,7 C 95 % 1026,0 hPa 0,0 l/m 3,9 km/h (1 Bft) SW 235 2 min 0,000 mm 0,0 UV-I 127 W/m 3,0 C 3,7 C 6,4 km/h (2 Bft) 91,49 %
16.03.2017 07:38 3,7 C 95 % 1026,0 hPa 0,0 l/m 4,0 km/h (1 Bft) SW 236 2 min 0,000 mm 0,0 UV-I 145 W/m 3,0 C 3,7 C 6,4 km/h (2 Bft) 91,49 %
16.03.2017 07:40 3,7 C 95 % 1026,0 hPa 0,0 l/m 4,6 km/h (1 Bft) SW 235 2 min 0,000 mm 0,0 UV-I 140 W/m 3,0 C 3,7 C 6,4 km/h (2 Bft) 92,00 %
16.03.2017 07:42 3,8 C 96 % 1026,1 hPa 0,0 l/m 2,2 km/h (1 Bft) SW 236 2 min 0,000 mm 0,0 UV-I 170 W/m 3,2 C 3,8 C 6,4 km/h (2 Bft) 94,74 %
16.03.2017 07:44 3,8 C 95 % 1026,1 hPa 0,0 l/m 3,4 km/h (1 Bft) SW 236 2 min 0,000 mm 0,0 UV-I 171 W/m 3,1 C 3,8 C 4,8 km/h (1 Bft) 94,34 %
16.03.2017 07:46 3,9 C 95 % 1026,0 hPa 0,0 l/m 4,6 km/h (1 Bft) W-SW 244 2 min 0,000 mm 0,0 UV-I 180 W/m 3,2 C 3,9 C 8,0 km/h (2 Bft) 94,87 %
16.03.2017 07:48 4,0 C 95 % 1026,0 hPa 0,0 l/m 3,9 km/h (1 Bft) W-SW 248 2 min 0,000 mm 0,0 UV-I 181 W/m 3,3 C 4,0 C 6,4 km/h (2 Bft) 98,11 %
16.03.2017 07:50 4,1 C 95 % 1026,0 hPa 0,0 l/m 5,7 km/h (1 Bft) W-SW 254 2 min 0,000 mm 0,0 UV-I 192 W/m 3,4 C 4,1 C 8,0 km/h (2 Bft) 93,62 %
16.03.2017 07:52 4,1 C 95 % 1026,0 hPa 0,0 l/m 5,9 km/h (2 Bft) W-SW 246 2 min 0,000 mm 0,0 UV-I 193 W/m 3,4 C 4,1 C 9,7 km/h (2 Bft) 95,74 %
16.03.2017 07:54 4,2 C 95 % 1026,1 hPa 0,0 l/m 3,6 km/h (1 Bft) W-SW 258 2 min 0,000 mm 0,0 UV-I 199 W/m 3,5 C 4,2 C 9,7 km/h (2 Bft) 94,74 %
16.03.2017 07:56 4,3 C 95 % 1026,2 hPa 0,0 l/m 1,5 km/h (1 Bft) W-SW 258 2 min 0,000 mm 0,0 UV-I 198 W/m 3,6 C 4,3 C 4,8 km/h (1 Bft) 91,07 %
16.03.2017 07:58 4,4 C 95 % 1026,2 hPa 0,0 l/m 0,4 km/h (0 Bft) W-SW 258 2 min 0,000 mm 0,0 UV-I 197 W/m 3,7 C 4,4 C 1,6 km/h (1 Bft) 95,74 %
16.03.2017 08:00 4,4 C 94 % 1026,2 hPa 0,0 l/m 2,0 km/h (1 Bft) W-SW 258 2 min 0,051 mm 0,0 UV-I 205 W/m 3,5 C 4,4 C 3,2 km/h (1 Bft) 97,37 %
16.03.2017 08:02 4,6 C 94 % 1026,2 hPa 0,0 l/m 2,6 km/h (1 Bft) W-SW 258 2 min 0,000 mm 0,0 UV-I 217 W/m 3,7 C 4,6 C 4,8 km/h (1 Bft) 96,00 %
16.03.2017 08:04 4,6 C 94 % 1026,2 hPa 0,0 l/m 5,3 km/h (1 Bft) SW 233 2 min 0,000 mm 0,0 UV-I 231 W/m 3,7 C 4,6 C 11,3 km/h (2 Bft) 98,00 %
16.03.2017 08:06 4,7 C 94 % 1026,2 hPa 0,0 l/m 5,9 km/h (2 Bft) W-SW 252 2 min 0,000 mm 0,0 UV-I 236 W/m 3,8 C 4,7 C 8,0 km/h (2 Bft) 97,73 %
16.03.2017 08:08 4,8 C 94 % 1026,2 hPa 0,0 l/m 5,3 km/h (1 Bft) W 263 2 min 0,000 mm 0,0 UV-I 244 W/m 3,9 C 4,8 C 9,7 km/h (2 Bft) 98,00 %
16.03.2017 08:10 5,0 C 94 % 1026,2 hPa 0,0 l/m 5,9 km/h (2 Bft) W-SW 242 2 min 0,000 mm 0,0 UV-I 251 W/m 4,1 C 5,0 C 11,3 km/h (2 Bft) 94,34 %
16.03.2017 08:12 5,1 C 93 % 1026,2 hPa 0,0 l/m 4,4 km/h (1 Bft) W 259 2 min 0,000 mm 0,0 UV-I 257 W/m 4,1 C 5,1 C 11,3 km/h (2 Bft) 94,74 %
16.03.2017 08:14 5,2 C 93 % 1026,2 hPa 0,0 l/m 6,0 km/h (2 Bft) W 273 2 min 0,000 mm 0,1 UV-I 262 W/m 4,2 C 5,2 C 11,3 km/h (2 Bft) 100,00 %
16.03.2017 08:16 5,3 C 93 % 1026,3 hPa 0,0 l/m 6,8 km/h (2 Bft) W-SW 257 2 min 0,000 mm 0,5 UV-I 269 W/m 4,3 C 5,0 C 11,3 km/h (2 Bft) 100,00 %
16.03.2017 08:18 5,4 C 92 % 1026,3 hPa 0,0 l/m 5,8 km/h (2 Bft) W 271 2 min 0,000 mm 0,5 UV-I 274 W/m 4,2 C 5,4 C 9,7 km/h (2 Bft) 98,11 %
16.03.2017 08:20 5,6 C 92 % 1026,3 hPa 0,0 l/m 4,5 km/h (1 Bft) W 261 2 min 0,000 mm 0,5 UV-I 271 W/m 4,4 C 5,6 C 6,4 km/h (2 Bft) 96,00 %
16.03.2017 08:22 5,7 C 92 % 1026,4 hPa 0,0 l/m 7,8 km/h (2 Bft) W-NW 285 2 min 0,000 mm 0,5 UV-I 279 W/m 4,5 C 4,5 C 12,9 km/h (3 Bft) 100,00 %
16.03.2017 08:24 5,8 C 92 % 1026,4 hPa 0,0 l/m 7,5 km/h (2 Bft) W-SW 258 2 min 0,000 mm 0,5 UV-I 276 W/m 4,6 C 4,9 C 12,9 km/h (3 Bft) 100,00 %
16.03.2017 08:26 5,9 C 91 % 1026,3 hPa 0,0 l/m 2,7 km/h (1 Bft) W 261 2 min 0,000 mm 0,5 UV-I 282 W/m 4,5 C 5,9 C 6,4 km/h (2 Bft) 96,00 %
16.03.2017 08:28 6,0 C 91 % 1026,4 hPa 0,0 l/m 7,2 km/h (2 Bft) W-SW 249 2 min 0,000 mm 0,6 UV-I 298 W/m 4,6 C 5,3 C 11,3 km/h (2 Bft) 100,00 %
16.03.2017 08:30 6,1 C 90 % 1026,4 hPa 0,0 l/m 3,5 km/h (1 Bft) W-SW 251 2 min 0,000 mm 0,6 UV-I 306 W/m 4,6 C 6,1 C 4,8 km/h (1 Bft) 100,00 %
16.03.2017 08:32 6,2 C 90 % 1026,4 hPa 0,0 l/m 4,6 km/h (1 Bft) W 265 2 min 0,000 mm 0,6 UV-I 307 W/m 4,7 C 6,2 C 9,7 km/h (2 Bft) 96,00 %
16.03.2017 08:34 6,2 C 89 % 1026,4 hPa 0,0 l/m 6,6 km/h (2 Bft) W 263 2 min 0,000 mm 0,6 UV-I 310 W/m 4,5 C 6,1 C 9,7 km/h (2 Bft) 91,30 %
16.03.2017 08:36 6,3 C 89 % 1026,4 hPa 0,0 l/m 3,4 km/h (1 Bft) W 263 2 min 0,000 mm 0,6 UV-I 313 W/m 4,6 C 6,3 C 4,8 km/h (1 Bft) 98,46 %
16.03.2017 08:38 6,4 C 89 % 1026,5 hPa 0,0 l/m 1,2 km/h (1 Bft) W 280 2 min 0,000 mm 0,7 UV-I 318 W/m 4,7 C 6,4 C 3,2 km/h (1 Bft) 96,00 %
16.03.2017 08:40 6,6 C 88 % 1026,4 hPa 0,0 l/m 1,3 km/h (1 Bft) W 280 2 min 0,000 mm 0,7 UV-I 329 W/m 4,8 C 6,6 C 3,2 km/h (1 Bft) 100,00 %
16.03.2017 08:42 6,6 C 88 % 1026,5 hPa 0,0 l/m 3,6 km/h (1 Bft) W 278 2 min 0,000 mm 0,7 UV-I 338 W/m 4,8 C 6,6 C 4,8 km/h (1 Bft) 98,00 %
16.03.2017 08:44 6,6 C 87 % 1026,5 hPa 0,0 l/m 4,1 km/h (1 Bft) W-SW 255 2 min 0,000 mm 0,7 UV-I 343 W/m 4,6 C 6,6 C 4,8 km/h (1 Bft) 100,00 %
16.03.2017 08:46 6,6 C 87 % 1026,5 hPa 0,0 l/m 5,0 km/h (1 Bft) W 259 2 min 0,000 mm 0,7 UV-I 346 W/m 4,6 C 6,6 C 6,4 km/h (2 Bft) 94,74 %
16.03.2017 08:48 6,7 C 87 % 1026,4 hPa 0,0 l/m 1,3 km/h (1 Bft) W 259 2 min 0,000 mm 0,8 UV-I 352 W/m 4,7 C 6,7 C 3,2 km/h (1 Bft) 98,00 %
16.03.2017 08:50 6,8 C 87 % 1026,5 hPa 0,0 l/m 0,1 km/h (0 Bft) W 259 2 min 0,000 mm 0,8 UV-I 349 W/m 4,8 C 6,8 C 1,6 km/h (1 Bft) 98,11 %
16.03.2017 08:52 6,9 C 87 % 1026,5 hPa 0,0 l/m 1,3 km/h (1 Bft) W-NW 302 2 min 0,000 mm 0,8 UV-I 354 W/m 4,9 C 6,9 C 4,8 km/h (1 Bft) 100,00 %
16.03.2017 08:54 6,8 C 86 % 1026,5 hPa 0,0 l/m 1,4 km/h (1 Bft) W-NW 302 2 min 0,000 mm 0,8 UV-I 365 W/m 4,6 C 6,8 C 3,2 km/h (1 Bft) 98,00 %
16.03.2017 08:56 6,9 C 86 % 1026,5 hPa 0,0 l/m 0,2 km/h (0 Bft) W-NW 302 2 min 0,000 mm 0,8 UV-I 368 W/m 4,7 C 6,9 C 1,6 km/h (1 Bft) 100,00 %
16.03.2017 08:58 6,9 C 87 % 1026,5 hPa 0,0 l/m 0,3 km/h (0 Bft) W-NW 302 2 min 0,000 mm 0,9 UV-I 370 W/m 4,9 C 6,9 C 1,6 km/h (1 Bft) 93,62 %
16.03.2017 09:00 7,1 C 87 % 1026,5 hPa 0,0 l/m 0,2 km/h (0 Bft) W-NW 302 2 min 0,127 mm 0,9 UV-I 366 W/m 5,1 C 7,1 C 1,6 km/h (1 Bft) 95,12 %
16.03.2017 09:02 7,2 C 87 % 1026,5 hPa 0,0 l/m 0,7 km/h (0 Bft) W-NW 303 2 min 0,000 mm 0,9 UV-I 375 W/m 5,2 C 7,2 C 3,2 km/h (1 Bft) 96,00 %
16.03.2017 09:04 7,2 C 87 % 1026,5 hPa 0,0 l/m 0,5 km/h (0 Bft) NW 304 2 min 0,000 mm 0,9 UV-I 382 W/m 5,2 C 7,2 C 3,2 km/h (1 Bft) 96,23 %
16.03.2017 09:06 7,3 C 87 % 1026,6 hPa 0,0 l/m 0,8 km/h (0 Bft) NW 307 2 min 0,000 mm 1,0 UV-I 396 W/m 5,3 C 7,3 C 4,8 km/h (1 Bft) 93,62 %
16.03.2017 09:08 7,4 C 87 % 1026,6 hPa 0,0 l/m 0,7 km/h (0 Bft) NW 310 2 min 0,000 mm 1,0 UV-I 420 W/m 5,4 C 7,4 C 4,8 km/h (1 Bft) 97,44 %
16.03.2017 09:10 7,3 C 85 % 1026,6 hPa 0,0 l/m 2,6 km/h (1 Bft) NW 315 2 min 0,000 mm 1,0 UV-I 427 W/m 4,9 C 7,3 C 4,8 km/h (1 Bft) 96,23 %
16.03.2017 09:12 7,4 C 86 % 1026,5 hPa 0,0 l/m 1,4 km/h (1 Bft) NW 314 2 min 0,000 mm 1,0 UV-I 397 W/m 5,2 C 7,4 C 3,2 km/h (1 Bft) 95,12 %
16.03.2017 09:14 7,6 C 86 % 1026,6 hPa 0,0 l/m 0,7 km/h (0 Bft) NW 316 2 min 0,000 mm 1,1 UV-I 437 W/m 5,4 C 7,6 C 3,2 km/h (1 Bft) 94,34 %
16.03.2017 09:16 7,6 C 86 % 1026,6 hPa 0,0 l/m 1,1 km/h (1 Bft) NW 323 2 min 0,000 mm 1,1 UV-I 483 W/m 5,4 C 7,6 C 4,8 km/h (1 Bft) 95,74 %
16.03.2017 09:18 7,8 C 88 % 1026,6 hPa 0,0 l/m 0,5 km/h (0 Bft) NW 324 2 min 0,000 mm 1,1 UV-I 437 W/m 5,9 C 7,8 C 3,2 km/h (1 Bft) 97,37 %
16.03.2017 09:20 7,8 C 86 % 1026,6 hPa 0,0 l/m 1,1 km/h (1 Bft) NW 313 2 min 0,000 mm 1,1 UV-I 387 W/m 5,6 C 7,8 C 3,2 km/h (1 Bft) 98,00 %
16.03.2017 09:22 7,7 C 84 % 1026,5 hPa 0,0 l/m 0,2 km/h (0 Bft) NW 313 2 min 0,000 mm 1,1 UV-I 431 W/m 5,2 C 7,7 C 1,6 km/h (1 Bft) 98,00 %
16.03.2017 09:24 7,7 C 86 % 1026,5 hPa 0,0 l/m 1,9 km/h (1 Bft) NW 319 2 min 0,000 mm 1,1 UV-I 356 W/m 5,5 C 7,7 C 3,2 km/h (1 Bft) 97,56 %
16.03.2017 09:26 7,8 C 86 % 1026,5 hPa 0,0 l/m 1,8 km/h (1 Bft) N-NW 327 2 min 0,000 mm 1,0 UV-I 313 W/m 5,6 C 7,8 C 4,8 km/h (1 Bft) 97,87 %
16.03.2017 09:28 7,8 C 86 % 1026,5 hPa 0,0 l/m 0,7 km/h (0 Bft) NW 325 2 min 0,000 mm 1,1 UV-I 321 W/m 5,6 C 7,8 C 3,2 km/h (1 Bft) 96,23 %
16.03.2017 09:30 7,7 C 84 % 1026,5 hPa 0,0 l/m 0,3 km/h (0 Bft) NW 325 2 min 0,000 mm 1,1 UV-I 362 W/m 5,2 C 7,7 C 1,6 km/h (1 Bft) 93,62 %
16.03.2017 09:32 7,8 C 85 % 1026,5 hPa 0,0 l/m 0,0 km/h (0 Bft) NW 325 2 min 0,000 mm 1,2 UV-I 406 W/m 5,4 C 7,8 C 0,0 km/h (0 Bft) 100,00 %
16.03.2017 09:34 7,9 C 85 % 1026,5 hPa 0,0 l/m 0,7 km/h (0 Bft) NW 317 2 min 0,000 mm 1,2 UV-I 403 W/m 5,5 C 7,9 C 3,2 km/h (1 Bft) 98,00 %
16.03.2017 09:36 7,9 C 83 % 1026,5 hPa 0,0 l/m 1,0 km/h (0 Bft) NW 317 2 min 0,000 mm 1,2 UV-I 383 W/m 5,2 C 7,9 C 3,2 km/h (1 Bft) 96,00 %
16.03.2017 09:38 7,9 C 83 % 1026,5 hPa 0,0 l/m 0,0 km/h (0 Bft) NW 317 2 min 0,000 mm 1,2 UV-I 387 W/m 5,2 C 7,9 C 1,6 km/h (1 Bft) 96,00 %
16.03.2017 09:40 8,1 C 84 % 1026,4 hPa 0,0 l/m 0,0 km/h (0 Bft) NW 317 2 min 0,000 mm 1,2 UV-I 435 W/m 5,6 C 8,1 C 0,0 km/h (0 Bft) 100,00 %
16.03.2017 09:42 8,2 C 83 % 1026,3 hPa 0,0 l/m 0,4 km/h (0 Bft) NW 317 2 min 0,000 mm 1,3 UV-I 434 W/m 5,5 C 8,2 C 1,6 km/h (1 Bft) 96,43 %
16.03.2017 09:44 8,3 C 83 % 1026,3 hPa 0,0 l/m 0,0 km/h (0 Bft) NW 317 2 min 0,000 mm 1,3 UV-I 433 W/m 5,6 C 8,3 C 0,0 km/h (0 Bft) 97,44 %
16.03.2017 09:46 8,4 C 83 % 1026,3 hPa 0,0 l/m 0,5 km/h (0 Bft) W-NW 300 2 min 0,000 mm 1,2 UV-I 396 W/m 5,7 C 8,4 C 3,2 km/h (1 Bft) 96,15 %
16.03.2017 09:48 8,3 C 82 % 1026,3 hPa 0,0 l/m 2,9 km/h (1 Bft) S-SW 207 2 min 0,000 mm 1,3 UV-I 398 W/m 5,4 C 8,3 C 6,4 km/h (2 Bft) 94,87 %
16.03.2017 09:50 8,2 C 83 % 1026,2 hPa 0,0 l/m 1,8 km/h (1 Bft) S 173 2 min 0,000 mm 1,3 UV-I 399 W/m 5,5 C 8,2 C 6,4 km/h (2 Bft) 96,43 %
16.03.2017 09:52 8,3 C 83 % 1026,2 hPa 0,0 l/m 5,0 km/h (1 Bft) W-SW 248 2 min 0,000 mm 1,2 UV-I 370 W/m 5,6 C 8,3 C 11,3 km/h (2 Bft) 100,00 %
16.03.2017 09:54 8,5 C 82 % 1026,2 hPa 0,0 l/m 6,0 km/h (2 Bft) W-SW 257 2 min 0,000 mm 1,2 UV-I 351 W/m 5,6 C 8,5 C 11,3 km/h (2 Bft) 95,12 %
16.03.2017 09:56 8,7 C 82 % 1026,1 hPa 0,0 l/m 5,2 km/h (1 Bft) S-SW 199 2 min 0,000 mm 1,2 UV-I 340 W/m 5,8 C 8,7 C 8,0 km/h (2 Bft) 100,00 %
16.03.2017 09:58 8,8 C 82 % 1026,2 hPa 0,0 l/m 6,1 km/h (2 Bft) W-SW 249 2 min 0,000 mm 1,2 UV-I 342 W/m 5,9 C 8,8 C 11,3 km/h (2 Bft) 100,00 %
16.03.2017 10:00 9,0 C 82 % 1026,1 hPa 0,0 l/m 5,3 km/h (1 Bft) SW 229 2 min 0,178 mm 1,2 UV-I 346 W/m 6,1 C 9,0 C 11,3 km/h (2 Bft) 95,12 %
16.03.2017 10:02 9,1 C 81 % 1026,1 hPa 0,0 l/m 5,1 km/h (1 Bft) SW 220 2 min 0,000 mm 1,2 UV-I 343 W/m 6,0 C 9,1 C 8,0 km/h (2 Bft) 94,34 %
16.03.2017 10:04 9,1 C 81 % 1026,1 hPa 0,0 l/m 2,6 km/h (1 Bft) W-NW 290 2 min 0,000 mm 1,2 UV-I 336 W/m 6,0 C 9,1 C 4,8 km/h (1 Bft) 100,00 %
16.03.2017 10:06 9,2 C 80 % 1026,1 hPa 0,0 l/m 2,2 km/h (1 Bft) SW 232 2 min 0,000 mm 1,2 UV-I 329 W/m 5,9 C 9,2 C 6,4 km/h (2 Bft) 97,87 %
16.03.2017 10:08 9,2 C 80 % 1026,1 hPa 0,0 l/m 3,9 km/h (1 Bft) W-SW 246 2 min 0,000 mm 1,2 UV-I 319 W/m 5,9 C 9,2 C 11,3 km/h (2 Bft) 97,56 %
16.03.2017 10:10 9,1 C 80 % 1026,1 hPa 0,0 l/m 7,8 km/h (2 Bft) W-SW 256 2 min 0,000 mm 1,2 UV-I 311 W/m 5,8 C 8,1 C 11,3 km/h (2 Bft) 96,23 %
16.03.2017 10:13 9,1 C 81 % 1026,1 hPa 0,0 l/m 5,5 km/h (1 Bft) SW 236 3 min 0,000 mm 1,2 UV-I 313 W/m 6,0 C 9,1 C 11,3 km/h (2 Bft) 98,65 %
16.03.2017 10:14 9,1 C 81 % 1026,1 hPa 0,0 l/m 6,2 km/h (2 Bft) W-SW 257 1 min 0,000 mm 1,3 UV-I 314 W/m 6,0 C 9,1 C 11,3 km/h (2 Bft) 94,12 %
16.03.2017 10:16 9,1 C 81 % 1026,0 hPa 0,0 l/m 4,5 km/h (1 Bft) W-SW 252 0 min 0,000 mm 1,3 UV-I 311 W/m 6,0 C 9,1 C 6,4 km/h (2 Bft) 98,00 %
16.03.2017 10:18 9,2 C 80 % 1026,0 hPa 0,0 l/m 7,3 km/h (2 Bft) W-SW 242 0 min 0,000 mm 1,3 UV-I 307 W/m 5,9 C 8,5 C 12,9 km/h (3 Bft) 97,73 %
16.03.2017 10:20 9,2 C 81 % 1026,0 hPa 0,0 l/m 8,5 km/h (2 Bft) W-SW 250 0 min 0,000 mm 1,3 UV-I 303 W/m 6,1 C 7,7 C 14,5 km/h (3 Bft) 97,22 %
16.03.2017 10:22 9,1 C 80 % 1026,0 hPa 0,0 l/m 6,0 km/h (2 Bft) W-SW 258 0 min 0,000 mm 1,3 UV-I 299 W/m 5,8 C 9,1 C 11,3 km/h (2 Bft) 100,00 %
16.03.2017 10:24 9,2 C 81 % 1025,9 hPa 0,0 l/m 8,0 km/h (2 Bft) SW 215 0 min 0,000 mm 1,3 UV-I 293 W/m 6,1 C 8,0 C 14,5 km/h (3 Bft) 98,00 %
16.03.2017 10:26 9,2 C 81 % 1026,0 hPa 0,0 l/m 6,6 km/h (2 Bft) W 265 0 min 0,000 mm 1,4 UV-I 299 W/m 6,1 C 9,1 C 11,3 km/h (2 Bft) 95,74 %
16.03.2017 10:29 9,2 C 80 % 1025,9 hPa 0,0 l/m 4,7 km/h (1 Bft) W 266 3 min 0,000 mm 1,5 UV-I 349 W/m 5,9 C 9,2 C 9,7 km/h (2 Bft) 96,72 %
16.03.2017 10:30 9,3 C 80 % 1026,0 hPa 0,0 l/m 1,1 km/h (1 Bft) W 266 1 min 0,000 mm 1,6 UV-I 381 W/m 6,0 C 9,3 C 3,2 km/h (1 Bft) 96,67 %
16.03.2017 10:32 9,4 C 81 % 1026,0 hPa 0,0 l/m 2,6 km/h (1 Bft) W-NW 290 2 min 0,000 mm 1,7 UV-I 444 W/m 6,3 C 9,4 C 9,7 km/h (2 Bft) 97,56 %
16.03.2017 10:34 9,6 C 80 % 1026,0 hPa 0,0 l/m 4,4 km/h (1 Bft) W-NW 294 2 min 0,000 mm 1,7 UV-I 470 W/m 6,3 C 9,6 C 11,3 km/h (2 Bft) 98,21 %
16.03.2017 10:36 9,7 C 79 % 1026,0 hPa 0,0 l/m 4,9 km/h (1 Bft) W-SW 249 2 min 0,000 mm 1,6 UV-I 458 W/m 6,2 C 9,7 C 8,0 km/h (2 Bft) 100,00 %
16.03.2017 10:38 9,7 C 79 % 1026,0 hPa 0,0 l/m 4,7 km/h (1 Bft) W 259 2 min 0,000 mm 1,5 UV-I 353 W/m 6,2 C 9,7 C 11,3 km/h (2 Bft) 97,56 %
16.03.2017 10:40 9,7 C 79 % 1025,9 hPa 0,0 l/m 7,1 km/h (2 Bft) W 269 2 min 0,000 mm 1,5 UV-I 359 W/m 6,2 C 9,2 C 12,9 km/h (3 Bft) 100,00 %
16.03.2017 10:42 9,7 C 80 % 1025,9 hPa 0,0 l/m 3,4 km/h (1 Bft) S-SW 206 2 min 0,000 mm 1,6 UV-I 421 W/m 6,4 C 9,7 C 6,4 km/h (2 Bft) 100,00 %
16.03.2017 10:44 9,9 C 80 % 1025,8 hPa 0,0 l/m 2,6 km/h (1 Bft) W-NW 288 2 min 0,000 mm 1,7 UV-I 440 W/m 6,6 C 9,9 C 4,8 km/h (1 Bft) 98,00 %
16.03.2017 10:46 10,2 C 79 % 1025,8 hPa 0,0 l/m 2,1 km/h (1 Bft) W-NW 301 2 min 0,000 mm 1,6 UV-I 404 W/m 6,7 C 10,2 C 3,2 km/h (1 Bft) 100,00 %
16.03.2017 10:48 10,3 C 78 % 1025,9 hPa 0,0 l/m 1,7 km/h (1 Bft) W 272 2 min 0,000 mm 1,5 UV-I 355 W/m 6,6 C 10,3 C 4,8 km/h (1 Bft) 100,00 %
16.03.2017 10:50 10,3 C 78 % 1025,8 hPa 0,0 l/m 5,7 km/h (1 Bft) W-NW 296 2 min 0,000 mm 1,5 UV-I 352 W/m 6,6 C 10,3 C 9,7 km/h (2 Bft) 100,00 %
16.03.2017 10:52 10,3 C 79 % 1025,8 hPa 0,0 l/m 4,3 km/h (1 Bft) W 277 2 min 0,000 mm 1,6 UV-I 376 W/m 6,8 C 10,3 C 6,4 km/h (2 Bft) 98,11 %
16.03.2017 10:54 10,3 C 79 % 1025,8 hPa 0,0 l/m 4,0 km/h (1 Bft) W 273 2 min 0,000 mm 1,7 UV-I 405 W/m 6,8 C 10,3 C 6,4 km/h (2 Bft) 97,87 %
16.03.2017 10:56 10,4 C 79 % 1025,7 hPa 0,0 l/m 3,9 km/h (1 Bft) W-NW 298 2 min 0,000 mm 1,7 UV-I 415 W/m 6,9 C 10,4 C 8,0 km/h (2 Bft) 97,56 %
16.03.2017 10:58 10,4 C 79 % 1025,7 hPa 0,0 l/m 4,3 km/h (1 Bft) W-NW 290 2 min 0,000 mm 1,6 UV-I 388 W/m 6,9 C 10,4 C 9,7 km/h (2 Bft) 94,44 %
16.03.2017 11:00 10,4 C 78 % 1025,7 hPa 0,0 l/m 1,5 km/h (1 Bft) W-NW 298 2 min 0,177 mm 1,6 UV-I 367 W/m 6,7 C 10,4 C 4,8 km/h (1 Bft) 97,44 %
16.03.2017 11:03 10,4 C 79 % 1025,6 hPa 0,0 l/m 3,8 km/h (1 Bft) NW 308 3 min 0,000 mm 1,6 UV-I 371 W/m 6,9 C 10,4 C 11,3 km/h (2 Bft) 96,23 %
16.03.2017 11:04 10,5 C 79 % 1025,6 hPa 0,0 l/m 2,7 km/h (1 Bft) NW 321 1 min 0,000 mm 1,6 UV-I 378 W/m 7,0 C 10,5 C 4,8 km/h (1 Bft) 97,62 %
16.03.2017 11:05 10,6 C 80 % 1025,6 hPa 0,0 l/m 3,2 km/h (1 Bft) NW 315 1 min 0,000 mm 1,6 UV-I 375 W/m 7,3 C 10,6 C 11,3 km/h (2 Bft) 100,00 %
16.03.2017 11:08 10,7 C 77 % 1025,5 hPa 0,0 l/m 5,5 km/h (1 Bft) W-SW 255 3 min 0,000 mm 1,7 UV-I 372 W/m 6,8 C 10,7 C 9,7 km/h (2 Bft) 97,06 %
16.03.2017 11:10 10,7 C 77 % 1025,5 hPa 0,0 l/m 7,2 km/h (2 Bft) W-SW 254 2 min 0,000 mm 1,7 UV-I 355 W/m 6,8 C 10,1 C 12,9 km/h (3 Bft) 96,00 %
16.03.2017 11:12 10,7 C 79 % 1025,5 hPa 0,0 l/m 1,4 km/h (1 Bft) W-NW 296 2 min 0,000 mm 1,7 UV-I 349 W/m 7,2 C 10,7 C 4,8 km/h (1 Bft) 96,43 %
16.03.2017 11:14 10,7 C 77 % 1025,5 hPa 0,0 l/m 2,7 km/h (1 Bft) W 277 0 min 0,000 mm 1,7 UV-I 343 W/m 6,8 C 10,7 C 12,9 km/h (3 Bft) 97,37 %
16.03.2017 11:16 10,7 C 76 % 1025,4 hPa 0,0 l/m 5,1 km/h (1 Bft) W-SW 238 0 min 0,000 mm 1,7 UV-I 346 W/m 6,6 C 10,7 C 8,0 km/h (2 Bft) 96,23 %
16.03.2017 11:18 10,7 C 77 % 1025,4 hPa 0,0 l/m 10,5 km/h (2 Bft) W 265 2 min 0,000 mm 1,9 UV-I 387 W/m 6,8 C 8,1 C 12,9 km/h (3 Bft) 97,56 %
16.03.2017 11:20 10,7 C 77 % 1025,4 hPa 0,0 l/m 9,7 km/h (2 Bft) W-SW 257 0 min 0,000 mm 1,8 UV-I 342 W/m 6,8 C 8,5 C 12,9 km/h (3 Bft) 98,11 %
16.03.2017 11:22 10,8 C 76 % 1025,4 hPa 0,0 l/m 7,6 km/h (2 Bft) W-SW 238 0 min 0,000 mm 2,0 UV-I 334 W/m 6,7 C 10,0 C 12,9 km/h (3 Bft) 100,00 %
16.03.2017 11:24 11,0 C 77 % 1025,4 hPa 0,0 l/m 4,9 km/h (1 Bft) W-SW 246 2 min 0,000 mm 2,3 UV-I 397 W/m 7,1 C 11,0 C 11,3 km/h (2 Bft) 97,73 %
16.03.2017 11:26 11,1 C 76 % 1025,4 hPa 0,0 l/m 6,5 km/h (2 Bft) S-SW 213 2 min 0,000 mm 2,4 UV-I 599 W/m 7,0 C 11,1 C 12,9 km/h (3 Bft) 96,23 %
16.03.2017 11:29 11,3 C 75 % 1025,4 hPa 0,0 l/m 6,1 km/h (2 Bft) W-SW 242 3 min 0,000 mm 2,2 UV-I 611 W/m 7,0 C 11,3 C 11,3 km/h (2 Bft) 100,00 %
16.03.2017 11:30 11,5 C 75 % 1025,4 hPa 0,0 l/m 5,3 km/h (1 Bft) W-SW 258 1 min 0,000 mm 2,2 UV-I 592 W/m 7,2 C 11,5 C 6,4 km/h (2 Bft) 90,62 %
16.03.2017 11:32 11,7 C 74 % 1025,3 hPa 0,0 l/m 8,5 km/h (2 Bft) W-SW 242 2 min 0,000 mm 2,3 UV-I 587 W/m 7,2 C 10,3 C 16,1 km/h (3 Bft) 100,00 %
16.03.2017 11:34 11,7 C 72 % 1025,3 hPa 0,0 l/m 12,5 km/h (3 Bft) W-SW 252 2 min 0,000 mm 2,3 UV-I 632 W/m 6,8 C 8,2 C 16,1 km/h (3 Bft) 97,87 %
16.03.2017 11:36 11,7 C 73 % 1025,3 hPa 0,0 l/m 7,9 km/h (2 Bft) W-SW 252 2 min 0,000 mm 2,1 UV-I 488 W/m 7,0 C 10,7 C 14,5 km/h (3 Bft) 95,74 %
16.03.2017 11:38 11,6 C 73 % 1025,3 hPa 0,0 l/m 6,6 km/h (2 Bft) W 266 2 min 0,000 mm 2,2 UV-I 492 W/m 6,9 C 11,5 C 11,3 km/h (2 Bft) 100,00 %
16.03.2017 11:40 11,6 C 74 % 1025,2 hPa 0,0 l/m 6,4 km/h (2 Bft) W 266 2 min 0,000 mm 2,1 UV-I 558 W/m 7,1 C 11,6 C 11,3 km/h (2 Bft) 96,23 %
16.03.2017 11:42 11,6 C 74 % 1025,2 hPa 0,0 l/m 4,9 km/h (1 Bft) W 271 2 min 0,000 mm 2,0 UV-I 507 W/m 7,1 C 11,6 C 9,7 km/h (2 Bft) 100,00 %
16.03.2017 11:44 11,6 C 74 % 1025,2 hPa 0,0 l/m 7,0 km/h (2 Bft) W-SW 239 2 min 0,000 mm 2,1 UV-I 438 W/m 7,1 C 11,2 C 16,1 km/h (3 Bft) 100,00 %
16.03.2017 11:46 11,5 C 74 % 1025,1 hPa 0,0 l/m 6,4 km/h (2 Bft) W-SW 250 2 min 0,000 mm 2,0 UV-I 419 W/m 7,0 C 11,5 C 9,7 km/h (2 Bft) 100,00 %
16.03.2017 11:48 11,6 C 73 % 1025,1 hPa 0,0 l/m 8,1 km/h (2 Bft) W-SW 242 2 min 0,000 mm 2,0 UV-I 438 W/m 6,9 C 10,5 C 12,9 km/h (3 Bft) 100,00 %
16.03.2017 11:50 11,6 C 72 % 1025,0 hPa 0,0 l/m 7,4 km/h (2 Bft) W-NW 292 2 min 0,000 mm 2,1 UV-I 482 W/m 6,7 C 10,9 C 11,3 km/h (2 Bft) 100,00 %
16.03.2017 11:52 11,7 C 71 % 1025,1 hPa 0,0 l/m 12,5 km/h (3 Bft) W 263 2 min 0,000 mm 2,0 UV-I 467 W/m 6,6 C 8,2 C 20,9 km/h (4 Bft) 98,11 %
16.03.2017 11:54 11,7 C 69 % 1025,1 hPa 0,0 l/m 9,8 km/h (2 Bft) W-SW 237 2 min 0,000 mm 2,0 UV-I 367 W/m 6,2 C 9,6 C 19,3 km/h (3 Bft) 100,00 %
16.03.2017 11:56 11,6 C 69 % 1025,0 hPa 0,0 l/m 11,5 km/h (2 Bft) SW 226 2 min 0,000 mm 2,1 UV-I 417 W/m 6,1 C 8,6 C 19,3 km/h (3 Bft) 100,00 %
16.03.2017 11:58 11,7 C 70 % 1025,0 hPa 0,0 l/m 11,1 km/h (2 Bft) W 269 2 min 0,000 mm 2,2 UV-I 519 W/m 6,4 C 8,9 C 16,1 km/h (3 Bft) 100,00 %
16.03.2017 12:00 11,7 C 70 % 1024,9 hPa 0,0 l/m 9,8 km/h (2 Bft) SW 219 2 min 0,254 mm 2,0 UV-I 629 W/m 6,4 C 9,6 C 17,7 km/h (3 Bft) 100,00 %
16.03.2017 12:02 11,8 C 70 % 1024,9 hPa 0,0 l/m 8,8 km/h (2 Bft) W 265 2 min 0,000 mm 1,9 UV-I 378 W/m 6,5 C 10,3 C 12,9 km/h (3 Bft) 97,87 %
16.03.2017 12:04 11,8 C 71 % 1025,0 hPa 0,0 l/m 15,6 km/h (3 Bft) W-SW 255 0 min 0,000 mm 2,4 UV-I 297 W/m 6,7 C 7,1 C 22,5 km/h (4 Bft) 100,00 %
16.03.2017 12:06 11,9 C 70 % 1024,9 hPa 0,0 l/m 10,8 km/h (2 Bft) W 271 2 min 0,000 mm 2,6 UV-I 773 W/m 6,6 C 9,3 C 14,5 km/h (3 Bft) 100,00 %
16.03.2017 12:08 12,2 C 68 % 1024,8 hPa 0,0 l/m 9,0 km/h (2 Bft) SW 217 2 min 0,000 mm 2,6 UV-I 753 W/m 6,5 C 10,6 C 14,5 km/h (3 Bft) 97,56 %
16.03.2017 12:10 12,4 C 67 % 1024,8 hPa 0,0 l/m 5,2 km/h (1 Bft) W-SW 238 2 min 0,000 mm 2,2 UV-I 647 W/m 6,4 C 12,4 C 11,3 km/h (2 Bft) 100,00 %
16.03.2017 12:12 12,7 C 66 % 1024,8 hPa 0,0 l/m 8,8 km/h (2 Bft) W-SW 242 2 min 0,000 mm 2,3 UV-I 640 W/m 6,5 C 11,2 C 25,7 km/h (4 Bft) 98,11 %
16.03.2017 12:14 12,6 C 62 % 1024,8 hPa 0,0 l/m 11,3 km/h (2 Bft) W 266 2 min 0,000 mm 2,4 UV-I 579 W/m 5,5 C 9,8 C 20,9 km/h (4 Bft) 96,00 %
16.03.2017 12:16 12,5 C 61 % 1024,8 hPa 0,0 l/m 16,2 km/h (3 Bft) W-SW 250 2 min 0,000 mm 2,4 UV-I 621 W/m 5,2 C 7,7 C 22,5 km/h (4 Bft) 100,00 %
16.03.2017 12:18 12,3 C 61 % 1024,7 hPa 0,0 l/m 16,6 km/h (3 Bft) SW 229 2 min 0,000 mm 2,2 UV-I 507 W/m 5,0 C 7,3 C 22,5 km/h (4 Bft) 97,73 %
16.03.2017 12:20 12,2 C 61 % 1024,7 hPa 0,0 l/m 13,1 km/h (3 Bft) W-SW 250 2 min 0,000 mm 2,2 UV-I 455 W/m 4,9 C 8,6 C 22,5 km/h (4 Bft) 100,00 %
16.03.2017 12:22 12,2 C 61 % 1024,7 hPa 0,0 l/m 16,4 km/h (3 Bft) W-SW 257 2 min 0,000 mm 2,3 UV-I 489 W/m 4,9 C 7,3 C 22,5 km/h (4 Bft) 96,08 %
16.03.2017 12:24 12,3 C 60 % 1024,7 hPa 0,0 l/m 11,3 km/h (2 Bft) W 281 2 min 0,000 mm 2,5 UV-I 700 W/m 4,8 C 9,5 C 16,1 km/h (3 Bft) 100,00 %
16.03.2017 12:26 12,6 C 60 % 1024,6 hPa 0,0 l/m 16,1 km/h (3 Bft) SW 235 2 min 0,000 mm 2,6 UV-I 690 W/m 5,0 C 7,9 C 22,5 km/h (4 Bft) 97,56 %
16.03.2017 12:28 12,6 C 60 % 1024,6 hPa 0,0 l/m 10,7 km/h (2 Bft) W-SW 244 2 min 0,000 mm 2,6 UV-I 652 W/m 5,0 C 10,1 C 14,5 km/h (3 Bft) 94,92 %
16.03.2017 12:30 12,8 C 59 % 1024,4 hPa 0,0 l/m 13,7 km/h (3 Bft) W-SW 249 2 min 0,000 mm 2,6 UV-I 656 W/m 5,0 C 9,0 C 19,3 km/h (3 Bft) 94,74 %
16.03.2017 12:32 12,8 C 59 % 1024,4 hPa 0,0 l/m 13,1 km/h (3 Bft) W 265 2 min 0,000 mm 2,6 UV-I 657 W/m 5,0 C 9,3 C 19,3 km/h (3 Bft) 96,36 %
16.03.2017 12:34 12,9 C 57 % 1024,3 hPa 0,0 l/m 13,1 km/h (3 Bft) W 275 2 min 0,000 mm 2,6 UV-I 680 W/m 4,6 C 9,4 C 20,9 km/h (4 Bft) 98,00 %
16.03.2017 12:36 12,9 C 54 % 1024,3 hPa 0,0 l/m 10,3 km/h (2 Bft) W 263 2 min 0,000 mm 2,6 UV-I 673 W/m 3,8 C 10,6 C 16,1 km/h (3 Bft) 95,45 %
16.03.2017 12:38 12,8 C 53 % 1024,3 hPa 0,0 l/m 9,9 km/h (2 Bft) W 262 2 min 0,000 mm 2,3 UV-I 645 W/m 3,5 C 10,7 C 16,1 km/h (3 Bft) 92,68 %
16.03.2017 12:40 12,8 C 54 % 1024,3 hPa 0,0 l/m 9,7 km/h (2 Bft) W-SW 257 2 min 0,000 mm 2,6 UV-I 675 W/m 3,7 C 10,8 C 16,1 km/h (3 Bft) 94,34 %
16.03.2017 12:42 12,9 C 54 % 1024,4 hPa 0,0 l/m 13,0 km/h (3 Bft) W 265 2 min 0,000 mm 2,5 UV-I 633 W/m 3,8 C 9,4 C 20,9 km/h (4 Bft) 92,68 %
16.03.2017 12:44 12,9 C 57 % 1024,4 hPa 0,0 l/m 11,0 km/h (2 Bft) W-NW 283 2 min 0,000 mm 2,5 UV-I 675 W/m 4,6 C 10,3 C 16,1 km/h (3 Bft) 96,23 %
16.03.2017 12:46 12,9 C 56 % 1024,3 hPa 0,0 l/m 7,2 km/h (2 Bft) W 270 2 min 0,000 mm 2,5 UV-I 687 W/m 4,3 C 12,4 C 16,1 km/h (3 Bft) 92,31 %
16.03.2017 12:48 13,1 C 57 % 1024,2 hPa 0,0 l/m 6,9 km/h (2 Bft) W-SW 257 2 min 0,000 mm 2,5 UV-I 672 W/m 4,8 C 12,8 C 9,7 km/h (2 Bft) 95,74 %
16.03.2017 12:50 13,2 C 56 % 1024,2 hPa 0,0 l/m 6,3 km/h (2 Bft) W 261 2 min 0,000 mm 2,5 UV-I 675 W/m 4,6 C 13,2 C 12,9 km/h (3 Bft) 94,34 %
16.03.2017 12:52 13,2 C 52 % 1024,2 hPa 0,0 l/m 9,7 km/h (2 Bft) W 280 2 min 0,000 mm 2,6 UV-I 683 W/m 3,6 C 11,3 C 16,1 km/h (3 Bft) 94,87 %
16.03.2017 12:54 13,2 C 50 % 1024,3 hPa 0,0 l/m 10,7 km/h (2 Bft) W-SW 250 2 min 0,000 mm 2,5 UV-I 681 W/m 3,0 C 10,8 C 20,9 km/h (4 Bft) 97,87 %
16.03.2017 12:56 13,3 C 50 % 1024,2 hPa 0,0 l/m 6,4 km/h (2 Bft) W 276 2 min 0,000 mm 2,5 UV-I 666 W/m 3,1 C 13,3 C 14,5 km/h (3 Bft) 96,36 %
16.03.2017 12:58 13,3 C 49 % 1024,2 hPa 0,0 l/m 11,7 km/h (2 Bft) W-SW 256 2 min 0,000 mm 2,5 UV-I 640 W/m 2,8 C 10,4 C 20,9 km/h (4 Bft) 94,87 %
16.03.2017 13:00 13,4 C 52 % 1024,1 hPa 0,0 l/m 3,3 km/h (1 Bft) W-NW 290 2 min 0,000 mm 2,4 UV-I 616 W/m 3,7 C 13,4 C 12,9 km/h (3 Bft) 94,00 %
16.03.2017 13:02 13,6 C 51 % 1024,1 hPa 0,0 l/m 9,1 km/h (2 Bft) W-NW 297 2 min 0,356 mm 2,4 UV-I 636 W/m 3,7 C 12,0 C 14,5 km/h (3 Bft) 94,00 %
16.03.2017 13:04 13,7 C 52 % 1024,0 hPa 0,0 l/m 8,2 km/h (2 Bft) W-SW 244 2 min 0,000 mm 2,4 UV-I 636 W/m 4,0 C 12,6 C 14,5 km/h (3 Bft) 95,12 %
16.03.2017 13:06 13,6 C 49 % 1024,1 hPa 0,0 l/m 13,6 km/h (3 Bft) W 269 2 min 0,000 mm 2,4 UV-I 629 W/m 3,1 C 10,0 C 20,9 km/h (4 Bft) 93,62 %
16.03.2017 13:08 13,4 C 50 % 1024,0 hPa 0,0 l/m 8,0 km/h (2 Bft) W-SW 257 2 min 0,000 mm 2,4 UV-I 624 W/m 3,2 C 12,4 C 14,5 km/h (3 Bft) 94,34 %
16.03.2017 13:10 13,5 C 51 % 1024,0 hPa 0,0 l/m 6,6 km/h (2 Bft) N-NO 22 2 min 0,000 mm 2,4 UV-I 618 W/m 3,6 C 13,4 C 12,9 km/h (3 Bft) 98,00 %
16.03.2017 13:12 13,7 C 51 % 1024,0 hPa 0,0 l/m 5,9 km/h (2 Bft) W 261 2 min 0,000 mm 2,3 UV-I 605 W/m 3,8 C 13,7 C 16,1 km/h (3 Bft) 95,12 %
16.03.2017 13:14 13,7 C 49 % 1023,9 hPa 0,0 l/m 10,7 km/h (2 Bft) W-SW 244 2 min 0,000 mm 2,4 UV-I 629 W/m 3,2 C 11,3 C 19,3 km/h (3 Bft) 98,11 %
16.03.2017 13:16 13,6 C 50 % 1024,0 hPa 0,0 l/m 10,9 km/h (2 Bft) W 281 2 min 0,000 mm 2,4 UV-I 632 W/m 3,4 C 11,1 C 14,5 km/h (3 Bft) 93,62 %
16.03.2017 13:18 13,5 C 50 % 1024,0 hPa 0,0 l/m 6,1 km/h (2 Bft) W-NW 298 2 min 0,000 mm 2,3 UV-I 620 W/m 3,3 C 13,5 C 12,9 km/h (3 Bft) 97,87 %
16.03.2017 13:20 13,5 C 50 % 1023,9 hPa 0,0 l/m 5,4 km/h (1 Bft) W-NW 283 2 min 0,000 mm 2,3 UV-I 617 W/m 3,3 C 13,5 C 12,9 km/h (3 Bft) 97,14 %
16.03.2017 13:22 13,7 C 50 % 1023,9 hPa 0,0 l/m 5,4 km/h (1 Bft) S-SW 202 2 min 0,000 mm 2,3 UV-I 602 W/m 3,5 C 13,7 C 12,9 km/h (3 Bft) 98,00 %
16.03.2017 13:24 13,8 C 51 % 1023,9 hPa 0,0 l/m 10,6 km/h (2 Bft) W 270 2 min 0,000 mm 2,3 UV-I 612 W/m 3,8 C 11,5 C 16,1 km/h (3 Bft) 95,35 %
16.03.2017 13:26 13,8 C 51 % 1023,8 hPa 0,0 l/m 12,0 km/h (2 Bft) S-SW 213 2 min 0,000 mm 2,3 UV-I 616 W/m 3,8 C 10,9 C 19,3 km/h (3 Bft) 97,73 %
16.03.2017 13:28 13,7 C 50 % 1023,8 hPa 0,0 l/m 16,1 km/h (3 Bft) W-SW 247 2 min 0,000 mm 2,2 UV-I 611 W/m 3,5 C 9,2 C 29,0 km/h (5 Bft) 95,74 %
16.03.2017 13:30 13,7 C 51 % 1023,8 hPa 0,0 l/m 8,7 km/h (2 Bft) W 264 2 min 0,000 mm 2,2 UV-I 607 W/m 3,8 C 12,3 C 16,1 km/h (3 Bft) 89,09 %
16.03.2017 13:32 13,6 C 52 % 1023,8 hPa 0,0 l/m 10,6 km/h (2 Bft) W 272 2 min 0,000 mm 2,2 UV-I 615 W/m 3,9 C 11,3 C 16,1 km/h (3 Bft) 98,00 %
16.03.2017 13:34 13,6 C 51 % 1023,8 hPa 0,0 l/m 10,0 km/h (2 Bft) W 277 2 min 0,000 mm 2,2 UV-I 610 W/m 3,7 C 11,6 C 14,5 km/h (3 Bft) 97,87 %
16.03.2017 13:36 13,7 C 50 % 1023,7 hPa 0,0 l/m 10,7 km/h (2 Bft) SW 235 2 min 0,000 mm 2,2 UV-I 588 W/m 3,5 C 11,3 C 16,1 km/h (3 Bft) 94,00 %
16.03.2017 13:38 13,8 C 52 % 1023,7 hPa 0,0 l/m 8,9 km/h (2 Bft) W 263 2 min 0,000 mm 2,2 UV-I 602 W/m 4,1 C 12,3 C 14,5 km/h (3 Bft) 92,31 %
16.03.2017 13:40 13,8 C 51 % 1023,7 hPa 0,0 l/m 8,7 km/h (2 Bft) W 261 2 min 0,000 mm 2,2 UV-I 602 W/m 3,8 C 12,5 C 16,1 km/h (3 Bft) 96,55 %
16.03.2017 13:42 14,0 C 52 % 1023,6 hPa 0,0 l/m 7,9 km/h (2 Bft) W-NW 301 2 min 0,000 mm 2,2 UV-I 610 W/m 4,3 C 13,1 C 16,1 km/h (3 Bft) 98,39 %
16.03.2017 13:44 14,1 C 46 % 1023,6 hPa 0,0 l/m 7,8 km/h (2 Bft) W 277 2 min 0,000 mm 2,2 UV-I 603 W/m 2,7 C 13,3 C 16,1 km/h (3 Bft) 93,62 %
16.03.2017 13:46 14,1 C 46 % 1023,6 hPa 0,0 l/m 7,1 km/h (2 Bft) W-SW 251 2 min 0,000 mm 2,1 UV-I 598 W/m 2,7 C 13,7 C 17,7 km/h (3 Bft) 94,00 %
16.03.2017 13:48 14,0 C 48 % 1023,6 hPa 0,0 l/m 8,5 km/h (2 Bft) W 271 2 min 0,000 mm 2,1 UV-I 595 W/m 3,2 C 12,8 C 17,7 km/h (3 Bft) 92,45 %
16.03.2017 13:50 13,9 C 49 % 1023,5 hPa 0,0 l/m 11,0 km/h (2 Bft) NW 319 2 min 0,000 mm 2,1 UV-I 584 W/m 3,4 C 11,4 C 16,1 km/h (3 Bft) 97,87 %
16.03.2017 13:52 14,0 C 51 % 1023,6 hPa 0,0 l/m 8,3 km/h (2 Bft) W 271 2 min 0,000 mm 2,1 UV-I 583 W/m 4,0 C 12,9 C 16,1 km/h (3 Bft) 97,73 %
16.03.2017 13:54 14,1 C 49 % 1023,5 hPa 0,0 l/m 11,5 km/h (2 Bft) W-NW 296 2 min 0,000 mm 2,1 UV-I 590 W/m 3,6 C 11,4 C 17,7 km/h (3 Bft) 94,74 %
16.03.2017 13:56 14,1 C 49 % 1023,5 hPa 0,0 l/m 12,7 km/h (3 Bft) NW 312 2 min 0,000 mm 2,0 UV-I 585 W/m 3,6 C 11,0 C 19,3 km/h (3 Bft) 90,91 %
16.03.2017 13:58 14,1 C 50 % 1023,5 hPa 0,0 l/m 9,4 km/h (2 Bft) SW 236 2 min 0,000 mm 2,0 UV-I 579 W/m 3,8 C 12,4 C 14,5 km/h (3 Bft) 96,43 %
16.03.2017 14:00 14,2 C 50 % 1023,5 hPa 0,0 l/m 8,9 km/h (2 Bft) W 261 2 min 0,000 mm 2,0 UV-I 579 W/m 3,9 C 12,8 C 14,5 km/h (3 Bft) 96,23 %
16.03.2017 14:02 14,2 C 50 % 1023,5 hPa 0,0 l/m 8,4 km/h (2 Bft) W 263 2 min 0,356 mm 2,0 UV-I 578 W/m 3,9 C 13,0 C 14,5 km/h (3 Bft) 97,37 %
16.03.2017 14:04 14,2 C 49 % 1023,5 hPa 0,0 l/m 13,4 km/h (3 Bft) W-SW 251 2 min 0,000 mm 2,0 UV-I 573 W/m 3,6 C 10,8 C 17,7 km/h (3 Bft) 90,91 %
16.03.2017 14:06 14,1 C 48 % 1023,5 hPa 0,0 l/m 12,0 km/h (2 Bft) W 281 2 min 0,000 mm 1,9 UV-I 570 W/m 3,3 C 11,2 C 22,5 km/h (4 Bft) 94,64 %
16.03.2017 14:08 14,1 C 47 % 1023,5 hPa 0,0 l/m 10,4 km/h (2 Bft) W 262 2 min 0,000 mm 1,9 UV-I 569 W/m 3,0 C 11,9 C 17,7 km/h (3 Bft) 95,12 %
16.03.2017 14:10 14,1 C 48 % 1023,4 hPa 0,0 l/m 9,9 km/h (2 Bft) W-SW 243 2 min 0,000 mm 1,9 UV-I 564 W/m 3,3 C 12,2 C 19,3 km/h (3 Bft) 90,00 %
16.03.2017 14:12 14,1 C 48 % 1023,4 hPa 0,0 l/m 13,5 km/h (3 Bft) SW 226 2 min 0,000 mm 1,9 UV-I 558 W/m 3,3 C 10,6 C 19,3 km/h (3 Bft) 92,00 %
16.03.2017 14:14 14,1 C 48 % 1023,4 hPa 0,0 l/m 10,6 km/h (2 Bft) W 261 2 min 0,000 mm 1,8 UV-I 553 W/m 3,3 C 11,8 C 16,1 km/h (3 Bft) 94,87 %
16.03.2017 14:16 14,2 C 48 % 1023,3 hPa 0,0 l/m 11,0 km/h (2 Bft) W-SW 244 2 min 0,000 mm 1,8 UV-I 548 W/m 3,4 C 11,8 C 16,1 km/h (3 Bft) 92,45 %
16.03.2017 14:18 14,2 C 48 % 1023,3 hPa 0,0 l/m 11,5 km/h (2 Bft) W 267 2 min 0,000 mm 1,8 UV-I 542 W/m 3,4 C 11,6 C 19,3 km/h (3 Bft) 92,00 %
16.03.2017 14:20 14,1 C 48 % 1023,3 hPa 0,0 l/m 9,6 km/h (2 Bft) W 263 2 min 0,000 mm 1,7 UV-I 544 W/m 3,3 C 12,3 C 17,7 km/h (3 Bft) 95,45 %
16.03.2017 14:22 14,1 C 49 % 1023,2 hPa 0,0 l/m 4,8 km/h (1 Bft) W-NW 297 2 min 0,000 mm 1,7 UV-I 535 W/m 3,6 C 14,1 C 11,3 km/h (2 Bft) 96,00 %
16.03.2017 14:24 14,1 C 49 % 1023,2 hPa 0,0 l/m 7,0 km/h (2 Bft) W 277 2 min 0,000 mm 1,7 UV-I 528 W/m 3,6 C 13,7 C 14,5 km/h (3 Bft) 90,91 %
16.03.2017 14:26 14,1 C 49 % 1023,2 hPa 0,0 l/m 7,2 km/h (2 Bft) W-SW 257 2 min 0,000 mm 1,7 UV-I 529 W/m 3,6 C 13,6 C 12,9 km/h (3 Bft) 93,18 %
16.03.2017 14:28 14,3 C 48 % 1023,2 hPa 0,0 l/m 7,8 km/h (2 Bft) SW 217 2 min 0,000 mm 1,7 UV-I 531 W/m 3,4 C 13,5 C 16,1 km/h (3 Bft) 92,45 %
16.03.2017 14:30 14,4 C 47 % 1023,2 hPa 0,0 l/m 8,6 km/h (2 Bft) W 265 2 min 0,000 mm 1,6 UV-I 526 W/m 3,2 C 13,1 C 17,7 km/h (3 Bft) 92,11 %
16.03.2017 14:32 14,4 C 47 % 1023,2 hPa 0,0 l/m 9,5 km/h (2 Bft) W-SW 255 2 min 0,000 mm 1,6 UV-I 516 W/m 3,2 C 12,7 C 14,5 km/h (3 Bft) 92,00 %
16.03.2017 14:34 14,3 C 48 % 1023,1 hPa 0,0 l/m 5,9 km/h (2 Bft) W-NW 286 2 min 0,000 mm 1,6 UV-I 513 W/m 3,4 C 14,3 C 8,0 km/h (2 Bft) 95,12 %
16.03.2017 14:36 14,4 C 47 % 1023,1 hPa 0,0 l/m 7,1 km/h (2 Bft) N-NW 327 2 min 0,000 mm 1,6 UV-I 512 W/m 3,2 C 14,0 C 14,5 km/h (3 Bft) 96,43 %
16.03.2017 14:38 14,4 C 47 % 1023,0 hPa 0,0 l/m 10,1 km/h (2 Bft) W 266 2 min 0,000 mm 1,5 UV-I 505 W/m 3,2 C 12,4 C 17,7 km/h (3 Bft) 97,73 %
16.03.2017 14:40 14,4 C 46 % 1023,0 hPa 0,0 l/m 9,3 km/h (2 Bft) W-NW 298 2 min 0,000 mm 1,5 UV-I 499 W/m 2,9 C 12,8 C 20,9 km/h (4 Bft) 98,00 %
16.03.2017 14:42 14,4 C 46 % 1022,9 hPa 0,0 l/m 12,7 km/h (3 Bft) W-SW 250 2 min 0,000 mm 1,5 UV-I 495 W/m 2,9 C 11,3 C 19,3 km/h (3 Bft) 100,00 %
16.03.2017 14:44 14,3 C 46 % 1022,9 hPa 0,0 l/m 11,7 km/h (2 Bft) SW 229 2 min 0,000 mm 1,5 UV-I 491 W/m 2,8 C 11,6 C 14,5 km/h (3 Bft) 98,11 %
16.03.2017 14:46 14,3 C 46 % 1022,9 hPa 0,0 l/m 14,1 km/h (3 Bft) W-SW 258 2 min 0,000 mm 1,4 UV-I 489 W/m 2,8 C 10,7 C 19,3 km/h (3 Bft) 100,00 %
16.03.2017 14:48 14,3 C 46 % 1022,9 hPa 0,0 l/m 12,3 km/h (3 Bft) W 262 2 min 0,000 mm 1,4 UV-I 483 W/m 2,8 C 11,3 C 16,1 km/h (3 Bft) 100,00 %
16.03.2017 14:50 14,2 C 47 % 1022,9 hPa 0,0 l/m 4,9 km/h (1 Bft) W 278 2 min 0,000 mm 1,4 UV-I 479 W/m 3,1 C 14,2 C 11,3 km/h (2 Bft) 100,00 %
16.03.2017 14:52 14,2 C 45 % 1022,8 hPa 0,0 l/m 8,5 km/h (2 Bft) W 265 2 min 0,000 mm 1,4 UV-I 473 W/m 2,4 C 13,0 C 16,1 km/h (3 Bft) 98,00 %
16.03.2017 14:54 14,2 C 46 % 1022,8 hPa 0,0 l/m 6,2 km/h (2 Bft) S 182 2 min 0,000 mm 1,3 UV-I 467 W/m 2,8 C 14,2 C 11,3 km/h (2 Bft) 96,15 %
16.03.2017 14:56 14,3 C 47 % 1022,9 hPa 0,0 l/m 6,9 km/h (2 Bft) W-SW 256 2 min 0,000 mm 1,3 UV-I 464 W/m 3,1 C 14,0 C 11,3 km/h (2 Bft) 100,00 %
16.03.2017 14:58 14,5 C 46 % 1022,8 hPa 0,0 l/m 9,3 km/h (2 Bft) W 275 2 min 0,000 mm 1,3 UV-I 464 W/m 3,0 C 12,9 C 14,5 km/h (3 Bft) 97,78 %
16.03.2017 15:00 14,6 C 46 % 1022,8 hPa 0,0 l/m 6,7 km/h (2 Bft) W-NW 286 2 min 0,330 mm 1,3 UV-I 463 W/m 3,1 C 14,4 C 12,9 km/h (3 Bft) 100,00 %
16.03.2017 15:02 14,4 C 46 % 1022,8 hPa 0,0 l/m 6,1 km/h (2 Bft) W-SW 246 2 min 0,000 mm 1,3 UV-I 459 W/m 2,9 C 14,4 C 9,7 km/h (2 Bft) 97,37 %
16.03.2017 15:04 14,4 C 47 % 1022,8 hPa 0,0 l/m 5,4 km/h (1 Bft) W 267 2 min 0,000 mm 1,2 UV-I 448 W/m 3,2 C 14,4 C 12,9 km/h (3 Bft) 100,00 %
16.03.2017 15:06 14,5 C 47 % 1022,7 hPa 0,0 l/m 10,1 km/h (2 Bft) W-SW 256 2 min 0,000 mm 1,2 UV-I 441 W/m 3,3 C 12,5 C 17,7 km/h (3 Bft) 95,12 %
16.03.2017 15:08 14,7 C 47 % 1022,7 hPa 0,0 l/m 7,2 km/h (2 Bft) W-SW 246 2 min 0,000 mm 1,2 UV-I 436 W/m 3,5 C 14,2 C 11,3 km/h (2 Bft) 100,00 %
16.03.2017 15:10 14,6 C 46 % 1022,7 hPa 0,0 l/m 11,8 km/h (2 Bft) W 262 2 min 0,000 mm 1,2 UV-I 433 W/m 3,1 C 11,9 C 14,5 km/h (3 Bft) 100,00 %
16.03.2017 15:12 14,6 C 46 % 1022,6 hPa 0,0 l/m 11,0 km/h (2 Bft) W-SW 247 2 min 0,000 mm 1,1 UV-I 426 W/m 3,1 C 12,2 C 14,5 km/h (3 Bft) 97,73 %
16.03.2017 15:14 14,5 C 45 % 1022,6 hPa 0,0 l/m 11,7 km/h (2 Bft) W-SW 249 2 min 0,000 mm 1,1 UV-I 425 W/m 2,7 C 11,8 C 16,1 km/h (3 Bft) 97,87 %
16.03.2017 15:16 14,4 C 44 % 1022,5 hPa 0,0 l/m 11,1 km/h (2 Bft) W 274 2 min 0,000 mm 1,1 UV-I 422 W/m 2,3 C 12,0 C 16,1 km/h (3 Bft) 96,23 %
16.03.2017 15:18 14,5 C 45 % 1022,5 hPa 0,0 l/m 9,7 km/h (2 Bft) W-SW 244 2 min 0,000 mm 1,1 UV-I 417 W/m 2,7 C 12,7 C 16,1 km/h (3 Bft) 100,00 %
16.03.2017 15:20 14,6 C 43 % 1022,5 hPa 0,0 l/m 9,4 km/h (2 Bft) W 263 2 min 0,000 mm 1,0 UV-I 407 W/m 2,2 C 13,0 C 16,1 km/h (3 Bft) 100,00 %
16.03.2017 15:22 14,5 C 43 % 1022,5 hPa 0,0 l/m 9,7 km/h (2 Bft) W-SW 257 2 min 0,000 mm 1,0 UV-I 401 W/m 2,1 C 12,7 C 17,7 km/h (3 Bft) 98,00 %
16.03.2017 15:24 14,5 C 45 % 1022,5 hPa 0,0 l/m 5,6 km/h (1 Bft) W-NW 288 2 min 0,000 mm 1,0 UV-I 398 W/m 2,7 C 14,5 C 11,3 km/h (2 Bft) 100,00 %
16.03.2017 15:26 14,6 C 45 % 1022,6 hPa 0,0 l/m 7,7 km/h (2 Bft) W 261 2 min 0,000 mm 1,0 UV-I 392 W/m 2,8 C 13,8 C 12,9 km/h (3 Bft) 98,11 %
16.03.2017 15:28 14,6 C 44 % 1022,5 hPa 0,0 l/m 7,7 km/h (2 Bft) W-SW 252 2 min 0,000 mm 1,0 UV-I 385 W/m 2,5 C 13,8 C 12,9 km/h (3 Bft) 98,00 %
16.03.2017 15:30 14,6 C 45 % 1022,5 hPa 0,0 l/m 8,2 km/h (2 Bft) W 265 2 min 0,000 mm 0,9 UV-I 382 W/m 2,8 C 13,6 C 16,1 km/h (3 Bft) 100,00 %
16.03.2017 15:32 14,6 C 44 % 1022,5 hPa 0,0 l/m 11,3 km/h (2 Bft) W-SW 246 2 min 0,000 mm 0,9 UV-I 379 W/m 2,5 C 12,1 C 14,5 km/h (3 Bft) 97,92 %
16.03.2017 15:34 14,4 C 44 % 1022,5 hPa 0,0 l/m 6,9 km/h (2 Bft) W 259 2 min 0,000 mm 0,9 UV-I 376 W/m 2,3 C 14,1 C 11,3 km/h (2 Bft) 100,00 %
16.03.2017 15:36 14,4 C 44 % 1022,4 hPa 0,0 l/m 6,4 km/h (2 Bft) SW 228 2 min 0,000 mm 0,9 UV-I 370 W/m 2,3 C 14,4 C 11,3 km/h (2 Bft) 100,00 %
16.03.2017 15:38 14,5 C 46 % 1022,5 hPa 0,0 l/m 1,9 km/h (1 Bft) W-NW 296 2 min 0,000 mm 0,8 UV-I 361 W/m 3,0 C 14,5 C 4,8 km/h (1 Bft) 98,11 %
16.03.2017 15:40 14,6 C 46 % 1022,4 hPa 0,0 l/m 3,6 km/h (1 Bft) W-SW 253 2 min 0,000 mm 0,8 UV-I 355 W/m 3,1 C 14,6 C 6,4 km/h (2 Bft) 98,00 %
16.03.2017 15:42 14,7 C 47 % 1022,4 hPa 0,0 l/m 4,8 km/h (1 Bft) W 259 2 min 0,000 mm 0,8 UV-I 352 W/m 3,5 C 14,7 C 6,4 km/h (2 Bft) 100,00 %
16.03.2017 15:44 14,7 C 43 % 1022,4 hPa 0,0 l/m 10,2 km/h (2 Bft) NW 316 2 min 0,000 mm 0,8 UV-I 346 W/m 2,3 C 12,7 C 16,1 km/h (3 Bft) 98,18 %
16.03.2017 15:46 14,6 C 46 % 1022,3 hPa 0,0 l/m 4,1 km/h (1 Bft) W-NW 292 2 min 0,000 mm 0,8 UV-I 339 W/m 3,1 C 14,6 C 9,7 km/h (2 Bft) 97,87 %
16.03.2017 15:48 14,4 C 44 % 1022,3 hPa 0,0 l/m 5,2 km/h (1 Bft) W 263 2 min 0,000 mm 0,7 UV-I 333 W/m 2,3 C 14,4 C 12,9 km/h (3 Bft) 100,00 %
16.03.2017 15:50 14,4 C 45 % 1022,2 hPa 0,0 l/m 3,9 km/h (1 Bft) W 277 2 min 0,000 mm 0,7 UV-I 329 W/m 2,6 C 14,4 C 9,7 km/h (2 Bft) 98,21 %
16.03.2017 15:52 14,4 C 44 % 1022,1 hPa 0,0 l/m 9,3 km/h (2 Bft) W 262 2 min 0,000 mm 0,7 UV-I 325 W/m 2,3 C 12,8 C 17,7 km/h (3 Bft) 100,00 %
16.03.2017 15:54 14,5 C 44 % 1022,1 hPa 0,0 l/m 6,8 km/h (2 Bft) W 261 2 min 0,000 mm 0,7 UV-I 319 W/m 2,4 C 14,3 C 14,5 km/h (3 Bft) 96,00 %
16.03.2017 15:56 14,4 C 42 % 1022,0 hPa 0,0 l/m 9,7 km/h (2 Bft) W 259 2 min 0,000 mm 0,7 UV-I 312 W/m 1,7 C 12,6 C 14,5 km/h (3 Bft) 97,37 %
16.03.2017 15:58 14,4 C 43 % 1022,0 hPa 0,0 l/m 6,1 km/h (2 Bft) S-SW 205 2 min 0,000 mm 0,7 UV-I 305 W/m 2,0 C 14,4 C 11,3 km/h (2 Bft) 93,62 %
16.03.2017 16:00 14,4 C 42 % 1022,0 hPa 0,0 l/m 8,7 km/h (2 Bft) SW 236 2 min 0,254 mm 0,6 UV-I 303 W/m 1,7 C 13,1 C 17,7 km/h (3 Bft) 96,00 %
16.03.2017 16:02 14,3 C 43 % 1022,0 hPa 0,0 l/m 7,3 km/h (2 Bft) W-SW 252 2 min 0,000 mm 0,6 UV-I 299 W/m 1,9 C 13,8 C 12,9 km/h (3 Bft) 96,00 %
16.03.2017 16:04 14,3 C 44 % 1021,9 hPa 0,0 l/m 5,8 km/h (2 Bft) W-SW 246 2 min 0,000 mm 0,6 UV-I 294 W/m 2,2 C 14,3 C 11,3 km/h (2 Bft) 97,37 %
16.03.2017 16:06 14,4 C 42 % 1021,8 hPa 0,0 l/m 8,4 km/h (2 Bft) W 261 2 min 0,000 mm 0,6 UV-I 287 W/m 1,7 C 13,3 C 16,1 km/h (3 Bft) 98,31 %
16.03.2017 16:08 14,4 C 43 % 1021,8 hPa 0,0 l/m 7,4 km/h (2 Bft) W 263 2 min 0,000 mm 0,5 UV-I 282 W/m 2,0 C 13,8 C 12,9 km/h (3 Bft) 97,44 %
16.03.2017 16:10 14,4 C 43 % 1021,8 hPa 0,0 l/m 7,7 km/h (2 Bft) W-SW 238 2 min 0,000 mm 0,5 UV-I 275 W/m 2,0 C 13,6 C 9,7 km/h (2 Bft) 96,15 %
16.03.2017 16:12 14,4 C 43 % 1021,8 hPa 0,0 l/m 5,4 km/h (1 Bft) W-SW 258 2 min 0,000 mm 0,5 UV-I 267 W/m 2,0 C 14,4 C 11,3 km/h (2 Bft) 97,92 %
16.03.2017 16:14 14,5 C 42 % 1021,7 hPa 0,0 l/m 8,2 km/h (2 Bft) W 266 2 min 0,000 mm 0,5 UV-I 262 W/m 1,7 C 13,5 C 12,9 km/h (3 Bft) 97,37 %
16.03.2017 16:16 14,5 C 43 % 1021,7 hPa 0,0 l/m 4,4 km/h (1 Bft) W 280 2 min 0,000 mm 0,5 UV-I 257 W/m 2,1 C 14,5 C 9,7 km/h (2 Bft) 96,23 %
16.03.2017 16:18 14,5 C 43 % 1021,7 hPa 0,0 l/m 3,1 km/h (1 Bft) W 266 2 min 0,000 mm 0,5 UV-I 253 W/m 2,1 C 14,5 C 4,8 km/h (1 Bft) 95,74 %
16.03.2017 16:20 14,5 C 44 % 1021,7 hPa 0,0 l/m 4,7 km/h (1 Bft) W 261 2 min 0,000 mm 0,0 UV-I 247 W/m 2,4 C 14,5 C 8,0 km/h (2 Bft) 97,73 %
16.03.2017 16:22 14,5 C 45 % 1021,7 hPa 0,0 l/m 4,7 km/h (1 Bft) W-SW 250 2 min 0,000 mm 0,0 UV-I 241 W/m 2,7 C 14,5 C 8,0 km/h (2 Bft) 98,00 %
16.03.2017 16:24 14,4 C 45 % 1021,6 hPa 0,0 l/m 7,6 km/h (2 Bft) W-SW 246 2 min 0,000 mm 0,0 UV-I 236 W/m 2,6 C 13,7 C 12,9 km/h (3 Bft) 97,73 %
16.03.2017 16:26 14,4 C 43 % 1021,6 hPa 0,0 l/m 10,9 km/h (2 Bft) W-SW 238 2 min 0,000 mm 0,0 UV-I 233 W/m 2,0 C 12,0 C 16,1 km/h (3 Bft) 97,87 %
16.03.2017 16:28 14,3 C 46 % 1021,6 hPa 0,0 l/m 6,9 km/h (2 Bft) W 266 2 min 0,000 mm 0,0 UV-I 227 W/m 2,8 C 14,0 C 11,3 km/h (2 Bft) 100,00 %
16.03.2017 16:30 14,4 C 44 % 1021,6 hPa 0,0 l/m 7,7 km/h (2 Bft) W 267 2 min 0,000 mm 0,0 UV-I 218 W/m 2,3 C 13,6 C 12,9 km/h (3 Bft) 100,00 %
16.03.2017 16:32 14,4 C 44 % 1021,6 hPa 0,0 l/m 5,6 km/h (1 Bft) W 272 2 min 0,000 mm 0,0 UV-I 212 W/m 2,3 C 14,4 C 11,3 km/h (2 Bft) 100,00 %
16.03.2017 16:34 14,3 C 43 % 1021,6 hPa 0,0 l/m 9,3 km/h (2 Bft) W 262 2 min 0,000 mm 0,0 UV-I 207 W/m 1,9 C 12,7 C 12,9 km/h (3 Bft) 100,00 %
16.03.2017 16:36 14,3 C 44 % 1021,6 hPa 0,0 l/m 6,2 km/h (2 Bft) W 261 2 min 0,000 mm 0,0 UV-I 203 W/m 2,2 C 14,3 C 14,5 km/h (3 Bft) 97,56 %
16.03.2017 16:38 14,2 C 43 % 1021,6 hPa 0,0 l/m 4,9 km/h (1 Bft) W 259 2 min 0,000 mm 0,0 UV-I 199 W/m 1,8 C 14,2 C 8,0 km/h (2 Bft) 98,31 %
16.03.2017 16:40 14,2 C 44 % 1021,5 hPa 0,0 l/m 7,3 km/h (2 Bft) W 273 2 min 0,000 mm 0,0 UV-I 194 W/m 2,1 C 13,7 C 11,3 km/h (2 Bft) 96,30 %
16.03.2017 16:42 14,2 C 43 % 1021,5 hPa 0,0 l/m 9,0 km/h (2 Bft) W 278 2 min 0,000 mm 0,0 UV-I 192 W/m 1,8 C 12,7 C 14,5 km/h (3 Bft) 96,72 %
16.03.2017 16:44 14,2 C 42 % 1021,4 hPa 0,0 l/m 11,0 km/h (2 Bft) W-SW 251 2 min 0,000 mm 0,0 UV-I 187 W/m 1,5 C 11,8 C 16,1 km/h (3 Bft) 100,00 %
16.03.2017 16:46 14,1 C 43 % 1021,5 hPa 0,0 l/m 4,2 km/h (1 Bft) W 268 2 min 0,000 mm 0,0 UV-I 180 W/m 1,7 C 14,1 C 14,5 km/h (3 Bft) 100,00 %
16.03.2017 16:48 14,1 C 44 % 1021,4 hPa 0,0 l/m 6,0 km/h (2 Bft) W-SW 240 2 min 0,000 mm 0,0 UV-I 172 W/m 2,0 C 14,1 C 9,7 km/h (2 Bft) 100,00 %
16.03.2017 16:50 14,1 C 44 % 1021,5 hPa 0,0 l/m 6,0 km/h (2 Bft) W-SW 250 2 min 0,000 mm 0,0 UV-I 162 W/m 2,0 C 14,1 C 9,7 km/h (2 Bft) 96,23 %
16.03.2017 16:52 14,1 C 43 % 1021,4 hPa 0,0 l/m 11,6 km/h (2 Bft) W 261 2 min 0,000 mm 0,0 UV-I 146 W/m 1,7 C 11,4 C 16,1 km/h (3 Bft) 100,00 %
16.03.2017 16:54 14,0 C 43 % 1021,5 hPa 0,0 l/m 6,0 km/h (2 Bft) W 265 2 min 0,000 mm 0,0 UV-I 142 W/m 1,6 C 14,0 C 11,3 km/h (2 Bft) 100,00 %
16.03.2017 16:56 13,9 C 44 % 1021,5 hPa 0,0 l/m 4,0 km/h (1 Bft) W-SW 247 2 min 0,000 mm 0,0 UV-I 144 W/m 1,9 C 13,9 C 11,3 km/h (2 Bft) 97,56 %
16.03.2017 16:58 13,8 C 47 % 1021,4 hPa 0,0 l/m 4,7 km/h (1 Bft) W 269 2 min 0,000 mm 0,0 UV-I 144 W/m 2,7 C 13,8 C 9,7 km/h (2 Bft) 100,00 %
16.03.2017 17:00 13,7 C 46 % 1021,5 hPa 0,0 l/m 5,3 km/h (1 Bft) W 269 2 min 0,000 mm 0,0 UV-I 138 W/m 2,3 C 13,7 C 12,9 km/h (3 Bft) 100,00 %
16.03.2017 17:02 13,7 C 45 % 1021,4 hPa 0,0 l/m 3,9 km/h (1 Bft) W-SW 248 2 min 0,152 mm 0,0 UV-I 135 W/m 2,0 C 13,7 C 8,0 km/h (2 Bft) 98,00 %
16.03.2017 17:04 13,6 C 46 % 1021,4 hPa 0,0 l/m 3,6 km/h (1 Bft) W-NW 298 2 min 0,000 mm 0,0 UV-I 130 W/m 2,2 C 13,6 C 11,3 km/h (2 Bft) 97,56 %
16.03.2017 17:06 13,6 C 46 % 1021,4 hPa 0,0 l/m 5,4 km/h (1 Bft) W-NW 296 2 min 0,000 mm 0,0 UV-I 121 W/m 2,2 C 13,6 C 12,9 km/h (3 Bft) 100,00 %
16.03.2017 17:08 13,6 C 44 % 1021,3 hPa 0,0 l/m 8,2 km/h (2 Bft) W-NW 283 2 min 0,000 mm 0,0 UV-I 116 W/m 1,6 C 12,5 C 16,1 km/h (3 Bft) 98,11 %
16.03.2017 17:10 13,6 C 44 % 1021,3 hPa 0,0 l/m 7,4 km/h (2 Bft) W 270 2 min 0,000 mm 0,0 UV-I 117 W/m 1,6 C 13,0 C 16,1 km/h (3 Bft) 100,00 %
16.03.2017 17:12 13,6 C 44 % 1021,3 hPa 0,0 l/m 5,0 km/h (1 Bft) W-NW 289 2 min 0,000 mm 0,0 UV-I 107 W/m 1,6 C 13,6 C 11,3 km/h (2 Bft) 100,00 %
16.03.2017 17:14 13,6 C 44 % 1021,3 hPa 0,0 l/m 5,3 km/h (1 Bft) W 265 2 min 0,000 mm 0,0 UV-I 103 W/m 1,6 C 13,6 C 9,7 km/h (2 Bft) 94,74 %
16.03.2017 17:16 13,5 C 45 % 1021,2 hPa 0,0 l/m 5,8 km/h (2 Bft) W 272 2 min 0,000 mm 0,0 UV-I 101 W/m 1,8 C 13,5 C 12,9 km/h (3 Bft) 98,21 %
16.03.2017 17:18 13,4 C 45 % 1021,2 hPa 0,0 l/m 4,9 km/h (1 Bft) W 267 2 min 0,000 mm 0,0 UV-I 98 W/m 1,7 C 13,4 C 6,4 km/h (2 Bft) 95,12 %
16.03.2017 17:20 13,4 C 45 % 1021,2 hPa 0,0 l/m 6,2 km/h (2 Bft) W 277 2 min 0,000 mm 0,0 UV-I 94 W/m 1,7 C 13,4 C 11,3 km/h (2 Bft) 98,11 %
16.03.2017 17:22 13,4 C 45 % 1021,2 hPa 0,0 l/m 5,2 km/h (1 Bft) W-SW 256 2 min 0,000 mm 0,0 UV-I 87 W/m 1,7 C 13,4 C 6,4 km/h (2 Bft) 97,37 %
16.03.2017 17:24 13,4 C 45 % 1021,2 hPa 0,0 l/m 4,6 km/h (1 Bft) W 275 2 min 0,000 mm 0,0 UV-I 86 W/m 1,7 C 13,4 C 6,4 km/h (2 Bft) 97,87 %
16.03.2017 17:26 13,4 C 45 % 1021,2 hPa 0,0 l/m 5,1 km/h (1 Bft) W 265 2 min 0,000 mm 0,0 UV-I 80 W/m 1,7 C 13,4 C 9,7 km/h (2 Bft) 94,44 %
16.03.2017 17:28 13,4 C 45 % 1021,2 hPa 0,0 l/m 5,4 km/h (1 Bft) W 272 2 min 0,000 mm 0,0 UV-I 77 W/m 1,7 C 13,4 C 8,0 km/h (2 Bft) 98,51 %
16.03.2017 17:30 13,4 C 45 % 1021,2 hPa 0,0 l/m 5,7 km/h (1 Bft) W 270 2 min 0,000 mm 0,0 UV-I 75 W/m 1,7 C 13,4 C 9,7 km/h (2 Bft) 100,00 %
16.03.2017 17:32 13,3 C 45 % 1021,1 hPa 0,0 l/m 5,3 km/h (1 Bft) W 267 2 min 0,000 mm 0,0 UV-I 69 W/m 1,6 C 13,3 C 6,4 km/h (2 Bft) 95,74 %
16.03.2017 17:34 13,3 C 46 % 1021,2 hPa 0,0 l/m 4,8 km/h (1 Bft) W 260 2 min 0,000 mm 0,0 UV-I 68 W/m 1,9 C 13,3 C 8,0 km/h (2 Bft) 100,00 %
16.03.2017 17:36 13,2 C 46 % 1021,2 hPa 0,0 l/m 4,6 km/h (1 Bft) W-NW 284 2 min 0,000 mm 0,0 UV-I 63 W/m 1,8 C 13,2 C 8,0 km/h (2 Bft) 94,64 %
16.03.2017 17:38 13,1 C 46 % 1021,2 hPa 0,0 l/m 3,4 km/h (1 Bft) W 275 2 min 0,000 mm 0,0 UV-I 58 W/m 1,7 C 13,1 C 4,8 km/h (1 Bft) 97,56 %
16.03.2017 17:40 13,1 C 46 % 1021,1 hPa 0,0 l/m 3,1 km/h (1 Bft) W 265 2 min 0,000 mm 0,0 UV-I 51 W/m 1,7 C 13,1 C 4,8 km/h (1 Bft) 100,00 %
16.03.2017 17:42 13,0 C 46 % 1021,1 hPa 0,0 l/m 2,6 km/h (1 Bft) W 266 2 min 0,000 mm 0,0 UV-I 46 W/m 1,7 C 13,0 C 4,8 km/h (1 Bft) 97,37 %
16.03.2017 17:44 12,9 C 47 % 1021,0 hPa 0,0 l/m 3,7 km/h (1 Bft) W 277 2 min 0,000 mm 0,0 UV-I 45 W/m 1,9 C 12,9 C 6,4 km/h (2 Bft) 94,00 %
16.03.2017 17:46 12,8 C 47 % 1021,0 hPa 0,0 l/m 3,4 km/h (1 Bft) W 277 2 min 0,000 mm 0,0 UV-I 43 W/m 1,8 C 12,8 C 4,8 km/h (1 Bft) 100,00 %
16.03.2017 17:48 12,8 C 47 % 1021,0 hPa 0,0 l/m 1,4 km/h (1 Bft) W 277 2 min 0,000 mm 0,0 UV-I 41 W/m 1,8 C 12,8 C 3,2 km/h (1 Bft) 100,00 %
16.03.2017 17:50 12,7 C 48 % 1021,0 hPa 0,0 l/m 1,8 km/h (1 Bft) W 277 2 min 0,000 mm 0,0 UV-I 38 W/m 2,0 C 12,7 C 4,8 km/h (1 Bft) 97,37 %
16.03.2017 17:52 12,6 C 49 % 1020,9 hPa 0,0 l/m 2,4 km/h (1 Bft) W 277 2 min 0,000 mm 0,0 UV-I 33 W/m 2,2 C 12,6 C 4,8 km/h (1 Bft) 98,00 %
16.03.2017 17:54 12,4 C 49 % 1020,9 hPa 0,0 l/m 2,4 km/h (1 Bft) W 277 2 min 0,000 mm 0,0 UV-I 31 W/m 2,0 C 12,4 C 3,2 km/h (1 Bft) 97,87 %
16.03.2017 17:56 12,3 C 49 % 1020,9 hPa 0,0 l/m 2,9 km/h (1 Bft) W 278 2 min 0,000 mm 0,0 UV-I 27 W/m 1,9 C 12,3 C 6,4 km/h (2 Bft) 100,00 %
16.03.2017 17:58 12,2 C 49 % 1020,9 hPa 0,0 l/m 3,5 km/h (1 Bft) W-NW 292 2 min 0,000 mm 0,0 UV-I 25 W/m 1,8 C 12,2 C 6,4 km/h (2 Bft) 95,74 %
16.03.2017 18:00 12,2 C 50 % 1021,0 hPa 0,0 l/m 2,2 km/h (1 Bft) W-NW 290 2 min 0,000 mm 0,0 UV-I 22 W/m 2,1 C 12,2 C 4,8 km/h (1 Bft) 100,00 %
16.03.2017 18:02 12,1 C 50 % 1021,0 hPa 0,0 l/m 2,6 km/h (1 Bft) W-NW 284 0 min 0,076 mm 0,0 UV-I 11 W/m 2,0 C 12,1 C 3,2 km/h (1 Bft) 98,00 %
16.03.2017 18:04 11,9 C 50 % 1021,0 hPa 0,0 l/m 2,6 km/h (1 Bft) W-NW 285 0 min 0,000 mm 0,0 UV-I 16 W/m 1,8 C 11,9 C 4,8 km/h (1 Bft) 94,87 %
16.03.2017 18:06 11,7 C 50 % 1021,0 hPa 0,0 l/m 1,3 km/h (1 Bft) W-NW 285 0 min 0,000 mm 0,0 UV-I 13 W/m 1,6 C 11,7 C 3,2 km/h (1 Bft) 96,36 %
16.03.2017 18:08 11,6 C 51 % 1021,0 hPa 0,0 l/m 2,4 km/h (1 Bft) W-NW 290 0 min 0,000 mm 0,0 UV-I 12 W/m 1,8 C 11,6 C 4,8 km/h (1 Bft) 95,83 %
16.03.2017 18:10 11,5 C 51 % 1021,0 hPa 0,0 l/m 2,6 km/h (1 Bft) W-NW 290 0 min 0,000 mm 0,0 UV-I 11 W/m 1,7 C 11,5 C 4,8 km/h (1 Bft) 96,77 %
16.03.2017 18:12 11,4 C 51 % 1020,9 hPa 0,0 l/m 1,6 km/h (1 Bft) W-NW 290 0 min 0,000 mm 0,0 UV-I 9 W/m 1,6 C 11,4 C 4,8 km/h (1 Bft) 94,00 %
16.03.2017 18:14 11,3 C 51 % 1020,9 hPa 0,0 l/m 2,0 km/h (1 Bft) W-NW 290 0 min 0,000 mm 0,0 UV-I 9 W/m 1,5 C 11,3 C 3,2 km/h (1 Bft) 97,37 %
16.03.2017 18:16 11,2 C 51 % 1020,9 hPa 0,0 l/m 2,2 km/h (1 Bft) W-NW 290 0 min 0,000 mm 0,0 UV-I 9 W/m 1,4 C 11,2 C 3,2 km/h (1 Bft) 98,21 %
16.03.2017 18:18 11,2 C 51 % 1020,9 hPa 0,0 l/m 2,9 km/h (1 Bft) W-NW 290 0 min 0,000 mm 0,0 UV-I 9 W/m 1,4 C 11,2 C 4,8 km/h (1 Bft) 96,23 %
16.03.2017 18:20 11,2 C 52 % 1020,9 hPa 0,0 l/m 1,6 km/h (1 Bft) W-NW 290 0 min 0,000 mm 0,0 UV-I 9 W/m 1,7 C 11,2 C 3,2 km/h (1 Bft) 92,68 %
16.03.2017 18:22 11,1 C 52 % 1020,9 hPa 0,0 l/m 1,0 km/h (0 Bft) W-NW 290 0 min 0,000 mm 0,0 UV-I 8 W/m 1,6 C 11,1 C 3,2 km/h (1 Bft) 96,23 %
16.03.2017 18:24 10,9 C 53 % 1020,9 hPa 0,0 l/m 1,5 km/h (1 Bft) W-NW 290 0 min 0,000 mm 0,0 UV-I 0 W/m 1,7 C 10,9 C 3,2 km/h (1 Bft) 94,29 %
16.03.2017 18:26 10,9 C 53 % 1020,9 hPa 0,0 l/m 1,7 km/h (1 Bft) W-NW 290 0 min 0,000 mm 0,0 UV-I 5 W/m 1,7 C 10,9 C 3,2 km/h (1 Bft) 90,00 %
16.03.2017 18:28 10,9 C 53 % 1020,9 hPa 0,0 l/m 0,7 km/h (0 Bft) W-NW 292 0 min 0,000 mm 0,0 UV-I 4 W/m 1,7 C 10,9 C 3,2 km/h (1 Bft) 94,00 %
16.03.2017 18:30 10,8 C 55 % 1020,9 hPa 0,0 l/m 1,0 km/h (0 Bft) W-NW 292 0 min 0,000 mm 0,0 UV-I 0 W/m 2,1 C 10,8 C 3,2 km/h (1 Bft) 98,00 %
16.03.2017 18:32 10,7 C 56 % 1020,9 hPa 0,0 l/m 0,3 km/h (0 Bft) W-NW 292 0 min 0,000 mm 0,0 UV-I 0 W/m 2,3 C 10,7 C 1,6 km/h (1 Bft) 92,68 %
16.03.2017 18:34 10,5 C 57 % 1021,0 hPa 0,0 l/m 0,6 km/h (0 Bft) W-NW 292 0 min 0,000 mm 0,0 UV-I 0 W/m 2,3 C 10,5 C 1,6 km/h (1 Bft) 97,87 %
16.03.2017 18:36 10,2 C 59 % 1020,9 hPa 0,0 l/m 0,2 km/h (0 Bft) W-NW 292 0 min 0,000 mm 0,0 UV-I 0 W/m 2,6 C 10,2 C 1,6 km/h (1 Bft) 96,23 %
16.03.2017 18:38 9,9 C 61 % 1020,9 hPa 0,0 l/m 0,4 km/h (0 Bft) W-NW 292 0 min 0,000 mm 0,0 UV-I 0 W/m 2,7 C 9,9 C 1,6 km/h (1 Bft) 94,74 %
16.03.2017 18:40 9,6 C 62 % 1020,9 hPa 0,0 l/m 0,0 km/h (0 Bft) W-NW 292 0 min 0,000 mm 0,0 UV-I 0 W/m 2,7 C 9,6 C 0,0 km/h (0 Bft) 96,00 %
16.03.2017 18:42 9,3 C 64 % 1020,9 hPa 0,0 l/m 0,0 km/h (0 Bft) W-NW 292 0 min 0,000 mm 0,0 UV-I 0 W/m 2,8 C 9,3 C 0,0 km/h (0 Bft) 93,62 %
16.03.2017 18:44 9,1 C 64 % 1020,9 hPa 0,0 l/m 0,3 km/h (0 Bft) W-NW 292 0 min 0,000 mm 0,0 UV-I 0 W/m 2,7 C 9,1 C 1,6 km/h (1 Bft) 94,00 %
16.03.2017 18:46 9,1 C 63 % 1020,8 hPa 0,0 l/m 0,0 km/h (0 Bft) W-NW 292 0 min 0,000 mm 0,0 UV-I 0 W/m 2,4 C 9,1 C 1,6 km/h (1 Bft) 96,00 %
16.03.2017 18:48 9,1 C 64 % 1020,9 hPa 0,0 l/m 0,8 km/h (0 Bft) W-NW 292 0 min 0,000 mm 0,0 UV-I 0 W/m 2,7 C 9,1 C 3,2 km/h (1 Bft) 97,87 %
16.03.2017 18:50 8,9 C 67 % 1020,9 hPa 0,0 l/m 0,8 km/h (0 Bft) W-NW 292 0 min 0,000 mm 0,0 UV-I 0 W/m 3,1 C 8,9 C 1,6 km/h (1 Bft) 97,62 %
16.03.2017 18:52 8,7 C 69 % 1020,8 hPa 0,0 l/m 0,7 km/h (0 Bft) W-NW 292 0 min 0,000 mm 0,0 UV-I 0 W/m 3,3 C 8,7 C 3,2 km/h (1 Bft) 98,11 %
16.03.2017 18:54 8,3 C 70 % 1020,9 hPa 0,0 l/m 0,5 km/h (0 Bft) W-NW 292 0 min 0,000 mm 0,0 UV-I 0 W/m 3,2 C 8,3 C 1,6 km/h (1 Bft) 97,56 %
16.03.2017 18:56 8,1 C 71 % 1020,9 hPa 0,0 l/m 0,5 km/h (0 Bft) W-NW 292 0 min 0,000 mm 0,0 UV-I 0 W/m 3,2 C 8,1 C 3,2 km/h (1 Bft) 91,49 %
16.03.2017 18:58 7,9 C 72 % 1020,9 hPa 0,0 l/m 0,8 km/h (0 Bft) W-NW 292 0 min 0,000 mm 0,0 UV-I 0 W/m 3,2 C 7,9 C 3,2 km/h (1 Bft) 93,02 %
16.03.2017 19:00 7,9 C 73 % 1020,9 hPa 0,0 l/m 0,5 km/h (0 Bft) W-NW 292 0 min 0,000 mm 0,0 UV-I 0 W/m 3,4 C 7,9 C 1,6 km/h (1 Bft) 96,23 %
16.03.2017 19:02 7,8 C 74 % 1020,9 hPa 0,0 l/m 0,1 km/h (0 Bft) W-NW 292 0 min 0,026 mm 0,0 UV-I 0 W/m 3,5 C 7,8 C 1,6 km/h (1 Bft) 97,37 %
16.03.2017 19:04 7,7 C 73 % 1020,9 hPa 0,0 l/m 1,2 km/h (1 Bft) W-NW 292 0 min 0,000 mm 0,0 UV-I 0 W/m 3,2 C 7,7 C 3,2 km/h (1 Bft) 90,00 %
16.03.2017 19:06 7,8 C 73 % 1021,0 hPa 0,0 l/m 0,5 km/h (0 Bft) W-NW 292 0 min 0,000 mm 0,0 UV-I 0 W/m 3,3 C 7,8 C 1,6 km/h (1 Bft) 95,74 %
16.03.2017 19:08 7,7 C 73 % 1021,0 hPa 0,0 l/m 0,3 km/h (0 Bft) W-NW 292 0 min 0,000 mm 0,0 UV-I 0 W/m 3,2 C 7,7 C 1,6 km/h (1 Bft) 97,73 %
16.03.2017 19:10 7,6 C 74 % 1021,0 hPa 0,0 l/m 0,1 km/h (0 Bft) W-NW 292 0 min 0,000 mm 0,0 UV-I 0 W/m 3,3 C 7,6 C 1,6 km/h (1 Bft) 91,49 %
16.03.2017 19:12 7,4 C 75 % 1021,0 hPa 0,0 l/m 0,2 km/h (0 Bft) W-NW 292 0 min 0,000 mm 0,0 UV-I 0 W/m 3,3 C 7,4 C 1,6 km/h (1 Bft) 97,87 %
16.03.2017 19:14 7,2 C 76 % 1020,9 hPa 0,0 l/m 0,3 km/h (0 Bft) W-NW 292 0 min 0,000 mm 0,0 UV-I 0 W/m 3,3 C 7,2 C 1,6 km/h (1 Bft) 94,34 %
16.03.2017 19:16 7,1 C 76 % 1020,9 hPa 0,0 l/m 1,2 km/h (1 Bft) W 261 0 min 0,000 mm 0,0 UV-I 0 W/m 3,2 C 7,1 C 3,2 km/h (1 Bft) 98,00 %
16.03.2017 19:18 7,1 C 75 % 1020,9 hPa 0,0 l/m 3,2 km/h (1 Bft) SW 217 0 min 0,000 mm 0,0 UV-I 0 W/m 3,0 C 7,1 C 4,8 km/h (1 Bft) 97,87 %
16.03.2017 19:20 7,3 C 73 % 1020,9 hPa 0,0 l/m 4,3 km/h (1 Bft) S-SW 198 0 min 0,000 mm 0,0 UV-I 0 W/m 2,8 C 7,3 C 4,8 km/h (1 Bft) 95,74 %
16.03.2017 19:22 7,3 C 72 % 1021,0 hPa 0,0 l/m 2,2 km/h (1 Bft) S-SW 198 0 min 0,000 mm 0,0 UV-I 0 W/m 2,6 C 7,3 C 4,8 km/h (1 Bft) 97,37 %
16.03.2017 19:24 7,4 C 72 % 1021,0 hPa 0,0 l/m 3,8 km/h (1 Bft) S-SW 198 0 min 0,000 mm 0,0 UV-I 0 W/m 2,7 C 7,4 C 4,8 km/h (1 Bft) 95,83 %
16.03.2017 19:26 7,3 C 73 % 1021,0 hPa 0,0 l/m 2,1 km/h (1 Bft) S-SW 198 0 min 0,000 mm 0,0 UV-I 0 W/m 2,8 C 7,3 C 3,2 km/h (1 Bft) 98,18 %
16.03.2017 19:28 7,3 C 72 % 1021,0 hPa 0,0 l/m 3,8 km/h (1 Bft) S-SW 198 0 min 0,000 mm 0,0 UV-I 0 W/m 2,6 C 7,3 C 4,8 km/h (1 Bft) 97,44 %
16.03.2017 19:30 7,2 C 73 % 1021,0 hPa 0,0 l/m 2,7 km/h (1 Bft) S-SW 198 0 min 0,000 mm 0,0 UV-I 0 W/m 2,7 C 7,2 C 4,8 km/h (1 Bft) 95,74 %
16.03.2017 19:32 7,0 C 74 % 1021,1 hPa 0,0 l/m 3,7 km/h (1 Bft) S-SW 198 0 min 0,000 mm 0,0 UV-I 0 W/m 2,7 C 7,0 C 4,8 km/h (1 Bft) 96,00 %
16.03.2017 19:34 6,8 C 75 % 1021,0 hPa 0,0 l/m 2,2 km/h (1 Bft) S-SW 198 0 min 0,000 mm 0,0 UV-I 0 W/m 2,7 C 6,8 C 3,2 km/h (1 Bft) 100,00 %
16.03.2017 19:36 6,8 C 74 % 1021,0 hPa 0,0 l/m 2,1 km/h (1 Bft) S-SW 198 0 min 0,000 mm 0,0 UV-I 0 W/m 2,5 C 6,8 C 3,2 km/h (1 Bft) 93,62 %
16.03.2017 19:38 6,8 C 74 % 1021,1 hPa 0,0 l/m 0,6 km/h (0 Bft) S-SW 198 0 min 0,000 mm 0,0 UV-I 0 W/m 2,5 C 6,8 C 1,6 km/h (1 Bft) 97,87 %
16.03.2017 19:40 6,8 C 73 % 1021,1 hPa 0,0 l/m 0,0 km/h (0 Bft) S-SW 198 0 min 0,000 mm 0,0 UV-I 0 W/m 2,3 C 6,8 C 0,0 km/h (0 Bft) 95,74 %
16.03.2017 19:42 6,8 C 73 % 1021,1 hPa 0,0 l/m 0,9 km/h (0 Bft) S-SW 198 0 min 0,000 mm 0,0 UV-I 0 W/m 2,3 C 6,8 C 1,6 km/h (1 Bft) 98,00 %
16.03.2017 19:44 6,9 C 72 % 1021,1 hPa 0,0 l/m 1,7 km/h (1 Bft) S-SW 198 0 min 0,000 mm 0,0 UV-I 0 W/m 2,2 C 6,9 C 3,2 km/h (1 Bft) 94,00 %
16.03.2017 19:46 6,9 C 72 % 1021,1 hPa 0,0 l/m 1,4 km/h (1 Bft) S-SW 198 0 min 0,000 mm 0,0 UV-I 0 W/m 2,2 C 6,9 C 3,2 km/h (1 Bft) 92,11 %
16.03.2017 19:48 6,9 C 72 % 1021,1 hPa 0,0 l/m 2,9 km/h (1 Bft) S-SW 198 0 min 0,000 mm 0,0 UV-I 0 W/m 2,2 C 6,9 C 3,2 km/h (1 Bft) 98,11 %
16.03.2017 19:50 6,8 C 74 % 1021,0 hPa 0,0 l/m 2,0 km/h (1 Bft) S-SW 196 0 min 0,000 mm 0,0 UV-I 0 W/m 2,5 C 6,8 C 4,8 km/h (1 Bft) 98,00 %
16.03.2017 19:52 6,9 C 73 % 1021,0 hPa 0,0 l/m 3,5 km/h (1 Bft) S-SW 196 0 min 0,000 mm 0,0 UV-I 0 W/m 2,4 C 6,9 C 6,4 km/h (2 Bft) 94,00 %
16.03.2017 19:54 6,9 C 73 % 1021,0 hPa 0,0 l/m 4,0 km/h (1 Bft) S 186 0 min 0,000 mm 0,0 UV-I 0 W/m 2,4 C 6,9 C 6,4 km/h (2 Bft) 90,91 %
16.03.2017 19:56 6,9 C 72 % 1021,0 hPa 0,0 l/m 3,4 km/h (1 Bft) S 170 0 min 0,000 mm 0,0 UV-I 0 W/m 2,2 C 6,9 C 6,4 km/h (2 Bft) 97,87 %
16.03.2017 19:58 7,1 C 71 % 1021,0 hPa 0,0 l/m 1,0 km/h (0 Bft) S 170 0 min 0,000 mm 0,0 UV-I 0 W/m 2,2 C 7,1 C 1,6 km/h (1 Bft) 95,74 %
16.03.2017 20:00 7,2 C 71 % 1021,0 hPa 0,0 l/m 1,6 km/h (1 Bft) S 170 0 min 0,000 mm 0,0 UV-I 0 W/m 2,3 C 7,2 C 3,2 km/h (1 Bft) 97,37 %
16.03.2017 20:02 7,1 C 71 % 1021,0 hPa 0,0 l/m 2,2 km/h (1 Bft) S 170 0 min 0,000 mm 0,0 UV-I 0 W/m 2,2 C 7,1 C 3,2 km/h (1 Bft) 98,00 %
16.03.2017 20:04 7,2 C 71 % 1021,0 hPa 0,0 l/m 3,0 km/h (1 Bft) S 171 0 min 0,000 mm 0,0 UV-I 0 W/m 2,3 C 7,2 C 6,4 km/h (2 Bft) 95,24 %
16.03.2017 20:06 7,2 C 72 % 1021,0 hPa 0,0 l/m 1,6 km/h (1 Bft) S 171 0 min 0,000 mm 0,0 UV-I 0 W/m 2,5 C 7,2 C 3,2 km/h (1 Bft) 98,11 %
16.03.2017 20:08 7,1 C 72 % 1021,0 hPa 0,0 l/m 2,9 km/h (1 Bft) S 171 0 min 0,000 mm 0,0 UV-I 0 W/m 2,4 C 7,1 C 6,4 km/h (2 Bft) 97,73 %
16.03.2017 20:10 6,9 C 72 % 1021,0 hPa 0,0 l/m 2,2 km/h (1 Bft) S 171 0 min 0,000 mm 0,0 UV-I 0 W/m 2,2 C 6,9 C 3,2 km/h (1 Bft) 91,49 %
16.03.2017 20:12 6,9 C 72 % 1021,0 hPa 0,0 l/m 2,1 km/h (1 Bft) S 171 0 min 0,000 mm 0,0 UV-I 0 W/m 2,2 C 6,9 C 3,2 km/h (1 Bft) 98,00 %
16.03.2017 20:14 6,9 C 72 % 1021,0 hPa 0,0 l/m 2,8 km/h (1 Bft) S 171 0 min 0,000 mm 0,0 UV-I 0 W/m 2,2 C 6,9 C 6,4 km/h (2 Bft) 95,12 %
16.03.2017 20:16 6,8 C 73 % 1021,0 hPa 0,0 l/m 2,5 km/h (1 Bft) S 171 0 min 0,000 mm 0,0 UV-I 0 W/m 2,3 C 6,8 C 6,4 km/h (2 Bft) 98,11 %
16.03.2017 20:18 6,9 C 72 % 1021,0 hPa 0,0 l/m 3,2 km/h (1 Bft) S 171 0 min 0,000 mm 0,0 UV-I 0 W/m 2,2 C 6,9 C 6,4 km/h (2 Bft) 98,00 %
16.03.2017 20:20 7,1 C 71 % 1021,0 hPa 0,0 l/m 4,4 km/h (1 Bft) S 171 0 min 0,000 mm 0,0 UV-I 0 W/m 2,2 C 7,1 C 6,4 km/h (2 Bft) 100,00 %
16.03.2017 20:22 7,2 C 70 % 1021,0 hPa 0,0 l/m 5,0 km/h (1 Bft) S 171 0 min 0,000 mm 0,0 UV-I 0 W/m 2,1 C 7,2 C 8,0 km/h (2 Bft) 100,00 %
16.03.2017 20:24 7,3 C 71 % 1021,0 hPa 0,0 l/m 2,8 km/h (1 Bft) S 171 0 min 0,000 mm 0,0 UV-I 0 W/m 2,4 C 7,3 C 6,4 km/h (2 Bft) 96,15 %
16.03.2017 20:26 7,3 C 70 % 1021,0 hPa 0,0 l/m 2,2 km/h (1 Bft) S 171 0 min 0,000 mm 0,0 UV-I 0 W/m 2,2 C 7,3 C 3,2 km/h (1 Bft) 100,00 %
16.03.2017 20:28 7,3 C 70 % 1021,0 hPa 0,0 l/m 2,3 km/h (1 Bft) S 171 0 min 0,000 mm 0,0 UV-I 0 W/m 2,2 C 7,3 C 3,2 km/h (1 Bft) 100,00 %
16.03.2017 20:30 7,2 C 70 % 1021,0 hPa 0,0 l/m 0,8 km/h (0 Bft) S 171 0 min 0,000 mm 0,0 UV-I 0 W/m 2,1 C 7,2 C 1,6 km/h (1 Bft) 100,00 %
16.03.2017 20:32 7,1 C 71 % 1021,1 hPa 0,0 l/m 1,1 km/h (1 Bft) S 171 0 min 0,000 mm 0,0 UV-I 0 W/m 2,2 C 7,1 C 1,6 km/h (1 Bft) 100,00 %
16.03.2017 20:34 7,1 C 71 % 1021,1 hPa 0,0 l/m 1,1 km/h (1 Bft) S 171 0 min 0,000 mm 0,0 UV-I 0 W/m 2,2 C 7,1 C 3,2 km/h (1 Bft) 94,74 %
16.03.2017 20:36 7,0 C 71 % 1021,0 hPa 0,0 l/m 1,9 km/h (1 Bft) S 171 0 min 0,000 mm 0,0 UV-I 0 W/m 2,1 C 7,0 C 3,2 km/h (1 Bft) 98,11 %
16.03.2017 20:38 6,9 C 71 % 1021,0 hPa 0,0 l/m 3,6 km/h (1 Bft) S 171 0 min 0,000 mm 0,0 UV-I 0 W/m 2,0 C 6,9 C 6,4 km/h (2 Bft) 97,37 %
16.03.2017 20:40 6,9 C 71 % 1021,0 hPa 0,0 l/m 2,5 km/h (1 Bft) S 171 0 min 0,000 mm 0,0 UV-I 0 W/m 2,0 C 6,9 C 3,2 km/h (1 Bft) 98,11 %
16.03.2017 20:42 7,1 C 71 % 1021,0 hPa 0,0 l/m 3,6 km/h (1 Bft) S 171 0 min 0,000 mm 0,0 UV-I 0 W/m 2,2 C 7,1 C 6,4 km/h (2 Bft) 97,62 %
16.03.2017 20:44 7,1 C 71 % 1021,0 hPa 0,0 l/m 4,1 km/h (1 Bft) S 173 0 min 0,000 mm 0,0 UV-I 0 W/m 2,2 C 7,1 C 8,0 km/h (2 Bft) 92,86 %
16.03.2017 20:46 7,1 C 71 % 1021,0 hPa 0,0 l/m 3,6 km/h (1 Bft) S 173 0 min 0,000 mm 0,0 UV-I 0 W/m 2,2 C 7,1 C 4,8 km/h (1 Bft) 96,43 %
16.03.2017 20:48 6,9 C 71 % 1021,0 hPa 0,0 l/m 2,1 km/h (1 Bft) S 173 0 min 0,000 mm 0,0 UV-I 0 W/m 2,0 C 6,9 C 4,8 km/h (1 Bft) 97,87 %
16.03.2017 20:50 6,8 C 72 % 1021,0 hPa 0,0 l/m 2,7 km/h (1 Bft) S 173 0 min 0,000 mm 0,0 UV-I 0 W/m 2,1 C 6,8 C 4,8 km/h (1 Bft) 87,23 %
16.03.2017 20:52 6,8 C 72 % 1021,0 hPa 0,0 l/m 2,5 km/h (1 Bft) S 173 0 min 0,000 mm 0,0 UV-I 0 W/m 2,1 C 6,8 C 4,8 km/h (1 Bft) 95,12 %
16.03.2017 20:54 6,7 C 72 % 1020,9 hPa 0,0 l/m 2,3 km/h (1 Bft) S 173 0 min 0,000 mm 0,0 UV-I 0 W/m 2,0 C 6,7 C 3,2 km/h (1 Bft) 91,49 %
16.03.2017 20:56 6,5 C 73 % 1020,9 hPa 0,0 l/m 2,2 km/h (1 Bft) S 173 0 min 0,000 mm 0,0 UV-I 0 W/m 2,0 C 6,5 C 4,8 km/h (1 Bft) 94,34 %
16.03.2017 20:58 6,4 C 73 % 1021,0 hPa 0,0 l/m 2,1 km/h (1 Bft) S 173 0 min 0,000 mm 0,0 UV-I 0 W/m 1,9 C 6,4 C 4,8 km/h (1 Bft) 95,65 %
16.03.2017 21:00 6,4 C 72 % 1021,0 hPa 0,0 l/m 2,2 km/h (1 Bft) S 173 0 min 0,000 mm 0,0 UV-I 0 W/m 1,7 C 6,4 C 4,8 km/h (1 Bft) 98,00 %
16.03.2017 21:02 6,5 C 72 % 1021,0 hPa 0,0 l/m 2,6 km/h (1 Bft) S 173 0 min 0,000 mm 0,0 UV-I 0 W/m 1,8 C 6,5 C 4,8 km/h (1 Bft) 89,47 %
16.03.2017 21:04 6,5 C 72 % 1021,0 hPa 0,0 l/m 2,6 km/h (1 Bft) S 173 0 min 0,000 mm 0,0 UV-I 0 W/m 1,8 C 6,5 C 3,2 km/h (1 Bft) 95,74 %
16.03.2017 21:06 6,5 C 72 % 1021,0 hPa 0,0 l/m 3,1 km/h (1 Bft) S 173 0 min 0,000 mm 0,0 UV-I 0 W/m 1,8 C 6,5 C 4,8 km/h (1 Bft) 94,00 %
16.03.2017 21:08 6,6 C 72 % 1021,0 hPa 0,0 l/m 3,6 km/h (1 Bft) S 173 0 min 0,000 mm 0,0 UV-I 0 W/m 1,9 C 6,6 C 8,0 km/h (2 Bft) 94,00 %
16.03.2017 21:10 6,6 C 72 % 1021,0 hPa 0,0 l/m 3,7 km/h (1 Bft) S 173 0 min 0,000 mm 0,0 UV-I 0 W/m 1,9 C 6,6 C 4,8 km/h (1 Bft) 97,56 %
16.03.2017 21:12 6,6 C 72 % 1021,0 hPa 0,0 l/m 2,6 km/h (1 Bft) S 173 0 min 0,000 mm 0,0 UV-I 0 W/m 1,9 C 6,6 C 4,8 km/h (1 Bft) 98,21 %
16.03.2017 21:14 6,6 C 71 % 1020,9 hPa 0,0 l/m 2,1 km/h (1 Bft) S 173 0 min 0,000 mm 0,0 UV-I 0 W/m 1,7 C 6,6 C 3,2 km/h (1 Bft) 94,74 %
16.03.2017 21:16 6,6 C 71 % 1021,0 hPa 0,0 l/m 2,5 km/h (1 Bft) S 173 0 min 0,000 mm 0,0 UV-I 0 W/m 1,7 C 6,6 C 4,8 km/h (1 Bft) 100,00 %
16.03.2017 21:18 6,6 C 71 % 1021,0 hPa 0,0 l/m 2,4 km/h (1 Bft) S 173 0 min 0,000 mm 0,0 UV-I 0 W/m 1,7 C 6,6 C 3,2 km/h (1 Bft) 95,74 %
16.03.2017 21:20 6,6 C 71 % 1021,0 hPa 0,0 l/m 2,7 km/h (1 Bft) S 173 0 min 0,000 mm 0,0 UV-I 0 W/m 1,7 C 6,6 C 4,8 km/h (1 Bft) 97,87 %
16.03.2017 21:22 6,6 C 71 % 1021,0 hPa 0,0 l/m 2,9 km/h (1 Bft) S 173 0 min 0,000 mm 0,0 UV-I 0 W/m 1,7 C 6,6 C 4,8 km/h (1 Bft) 100,00 %
16.03.2017 21:24 6,7 C 70 % 1021,0 hPa 0,0 l/m 3,5 km/h (1 Bft) S 173 0 min 0,000 mm 0,0 UV-I 0 W/m 1,6 C 6,7 C 8,0 km/h (2 Bft) 100,00 %
16.03.2017 21:26 6,8 C 70 % 1021,0 hPa 0,0 l/m 3,1 km/h (1 Bft) S 173 0 min 0,000 mm 0,0 UV-I 0 W/m 1,7 C 6,8 C 8,0 km/h (2 Bft) 100,00 %
16.03.2017 21:28 6,9 C 69 % 1020,9 hPa 0,0 l/m 2,8 km/h (1 Bft) S 173 0 min 0,000 mm 0,0 UV-I 0 W/m 1,6 C 6,9 C 4,8 km/h (1 Bft) 100,00 %
16.03.2017 21:30 6,8 C 69 % 1020,9 hPa 0,0 l/m 3,3 km/h (1 Bft) S 173 0 min 0,000 mm 0,0 UV-I 0 W/m 1,5 C 6,8 C 4,8 km/h (1 Bft) 96,23 %
16.03.2017 21:32 6,8 C 70 % 1020,9 hPa 0,0 l/m 2,3 km/h (1 Bft) S 173 0 min 0,000 mm 0,0 UV-I 0 W/m 1,7 C 6,8 C 3,2 km/h (1 Bft) 100,00 %
16.03.2017 21:34 6,8 C 70 % 1020,9 hPa 0,0 l/m 2,3 km/h (1 Bft) S 173 0 min 0,000 mm 0,0 UV-I 0 W/m 1,7 C 6,8 C 4,8 km/h (1 Bft) 98,00 %
16.03.2017 21:36 6,8 C 69 % 1020,9 hPa 0,0 l/m 2,8 km/h (1 Bft) S 173 0 min 0,000 mm 0,0 UV-I 0 W/m 1,5 C 6,8 C 3,2 km/h (1 Bft) 94,00 %
16.03.2017 21:38 6,8 C 69 % 1020,9 hPa 0,0 l/m 3,4 km/h (1 Bft) S 173 0 min 0,000 mm 0,0 UV-I 0 W/m 1,5 C 6,8 C 8,0 km/h (2 Bft) 97,73 %
16.03.2017 21:40 6,8 C 69 % 1020,9 hPa 0,0 l/m 2,9 km/h (1 Bft) S 173 0 min 0,000 mm 0,0 UV-I 0 W/m 1,5 C 6,8 C 4,8 km/h (1 Bft) 98,00 %
16.03.2017 21:42 6,8 C 69 % 1020,8 hPa 0,0 l/m 2,0 km/h (1 Bft) S 173 0 min 0,000 mm 0,0 UV-I 0 W/m 1,5 C 6,8 C 3,2 km/h (1 Bft) 100,00 %
16.03.2017 21:44 6,8 C 69 % 1020,8 hPa 0,0 l/m 2,7 km/h (1 Bft) S 173 0 min 0,000 mm 0,0 UV-I 0 W/m 1,5 C 6,8 C 8,0 km/h (2 Bft) 97,73 %
16.03.2017 21:46 6,7 C 69 % 1020,8 hPa 0,0 l/m 5,4 km/h (1 Bft) S 174 0 min 0,000 mm 0,0 UV-I 0 W/m 1,4 C 6,7 C 9,7 km/h (2 Bft) 98,11 %
16.03.2017 21:48 6,7 C 69 % 1020,8 hPa 0,0 l/m 5,3 km/h (1 Bft) S 189 0 min 0,000 mm 0,0 UV-I 0 W/m 1,4 C 6,7 C 6,4 km/h (2 Bft) 97,87 %
16.03.2017 21:50 6,6 C 69 % 1020,8 hPa 0,0 l/m 4,9 km/h (1 Bft) S 189 0 min 0,000 mm 0,0 UV-I 0 W/m 1,3 C 6,6 C 6,4 km/h (2 Bft) 97,37 %
16.03.2017 21:52 6,6 C 69 % 1020,8 hPa 0,0 l/m 3,6 km/h (1 Bft) S 189 0 min 0,000 mm 0,0 UV-I 0 W/m 1,3 C 6,6 C 6,4 km/h (2 Bft) 98,15 %
16.03.2017 21:54 6,4 C 70 % 1020,8 hPa 0,0 l/m 4,5 km/h (1 Bft) S 189 0 min 0,000 mm 0,0 UV-I 0 W/m 1,3 C 6,4 C 6,4 km/h (2 Bft) 96,00 %
16.03.2017 21:56 6,4 C 70 % 1020,8 hPa 0,0 l/m 2,7 km/h (1 Bft) S 189 0 min 0,000 mm 0,0 UV-I 0 W/m 1,3 C 6,4 C 4,8 km/h (1 Bft) 92,11 %
16.03.2017 21:58 6,3 C 70 % 1020,8 hPa 0,0 l/m 2,0 km/h (1 Bft) S 189 0 min 0,000 mm 0,0 UV-I 0 W/m 1,2 C 6,3 C 4,8 km/h (1 Bft) 100,00 %
16.03.2017 22:00 6,3 C 70 % 1020,8 hPa 0,0 l/m 2,2 km/h (1 Bft) S 189 0 min 0,000 mm 0,0 UV-I 0 W/m 1,2 C 6,3 C 3,2 km/h (1 Bft) 98,11 %
16.03.2017 22:02 6,3 C 70 % 1020,8 hPa 0,0 l/m 2,1 km/h (1 Bft) S 189 0 min 0,025 mm 0,0 UV-I 0 W/m 1,2 C 6,3 C 4,8 km/h (1 Bft) 97,30 %
16.03.2017 22:04 6,3 C 70 % 1020,8 hPa 0,0 l/m 3,4 km/h (1 Bft) S 187 0 min 0,000 mm 0,0 UV-I 0 W/m 1,2 C 6,3 C 6,4 km/h (2 Bft) 100,00 %
16.03.2017 22:06 6,3 C 69 % 1020,8 hPa 0,0 l/m 2,6 km/h (1 Bft) S 187 0 min 0,000 mm 0,0 UV-I 0 W/m 1,0 C 6,3 C 4,8 km/h (1 Bft) 96,23 %
16.03.2017 22:08 6,3 C 69 % 1020,8 hPa 0,0 l/m 2,3 km/h (1 Bft) S 187 0 min 0,000 mm 0,0 UV-I 0 W/m 1,0 C 6,3 C 3,2 km/h (1 Bft) 100,00 %
16.03.2017 22:10 6,3 C 69 % 1020,8 hPa 0,0 l/m 2,6 km/h (1 Bft) S 187 0 min 0,000 mm 0,0 UV-I 0 W/m 1,0 C 6,3 C 4,8 km/h (1 Bft) 98,00 %
16.03.2017 22:12 6,3 C 69 % 1020,8 hPa 0,0 l/m 2,6 km/h (1 Bft) S 187 0 min 0,000 mm 0,0 UV-I 0 W/m 1,0 C 6,3 C 4,8 km/h (1 Bft) 100,00 %
16.03.2017 22:14 6,2 C 69 % 1020,8 hPa 0,0 l/m 2,2 km/h (1 Bft) S 187 0 min 0,000 mm 0,0 UV-I 0 W/m 0,9 C 6,2 C 3,2 km/h (1 Bft) 98,00 %
16.03.2017 22:16 6,1 C 69 % 1020,8 hPa 0,0 l/m 2,6 km/h (1 Bft) S 186 0 min 0,000 mm 0,0 UV-I 0 W/m 0,8 C 6,1 C 4,8 km/h (1 Bft) 98,11 %
16.03.2017 22:18 6,2 C 69 % 1020,8 hPa 0,0 l/m 3,1 km/h (1 Bft) S 178 0 min 0,000 mm 0,0 UV-I 0 W/m 0,9 C 6,2 C 4,8 km/h (1 Bft) 100,00 %
16.03.2017 22:20 6,2 C 69 % 1020,8 hPa 0,0 l/m 3,4 km/h (1 Bft) S 174 0 min 0,000 mm 0,0 UV-I 0 W/m 0,9 C 6,2 C 4,8 km/h (1 Bft) 97,37 %
16.03.2017 22:23 6,3 C 69 % 1020,7 hPa 0,0 l/m 3,7 km/h (1 Bft) S 175 0 min 0,000 mm 0,0 UV-I 0 W/m 1,0 C 6,3 C 4,8 km/h (1 Bft) 97,47 %
16.03.2017 22:24 6,3 C 69 % 1020,7 hPa 0,0 l/m 3,2 km/h (1 Bft) S 175 0 min 0,000 mm 0,0 UV-I 0 W/m 1,0 C 6,3 C 4,8 km/h (1 Bft) 100,00 %
16.03.2017 22:26 6,3 C 69 % 1020,7 hPa 0,0 l/m 3,2 km/h (1 Bft) S 178 0 min 0,000 mm 0,0 UV-I 0 W/m 1,0 C 6,3 C 4,8 km/h (1 Bft) 98,21 %
16.03.2017 22:28 6,2 C 69 % 1020,7 hPa 0,0 l/m 3,4 km/h (1 Bft) S 191 0 min 0,000 mm 0,0 UV-I 0 W/m 0,9 C 6,2 C 6,4 km/h (2 Bft) 100,00 %
16.03.2017 22:30 6,2 C 69 % 1020,7 hPa 0,0 l/m 3,6 km/h (1 Bft) S 185 0 min 0,000 mm 0,0 UV-I 0 W/m 0,9 C 6,2 C 6,4 km/h (2 Bft) 97,87 %
16.03.2017 22:32 6,1 C 69 % 1020,7 hPa 0,0 l/m 4,4 km/h (1 Bft) S 185 0 min 0,000 mm 0,0 UV-I 0 W/m 0,8 C 6,1 C 6,4 km/h (2 Bft) 100,00 %
16.03.2017 22:34 6,0 C 69 % 1020,7 hPa 0,0 l/m 4,0 km/h (1 Bft) S 185 0 min 0,000 mm 0,0 UV-I 0 W/m 0,8 C 6,0 C 6,4 km/h (2 Bft) 100,00 %
16.03.2017 22:36 5,9 C 70 % 1020,7 hPa 0,0 l/m 2,7 km/h (1 Bft) S 185 0 min 0,000 mm 0,0 UV-I 0 W/m 0,9 C 5,9 C 4,8 km/h (1 Bft) 100,00 %
16.03.2017 22:38 5,8 C 70 % 1020,7 hPa 0,0 l/m 2,8 km/h (1 Bft) S 180 0 min 0,000 mm 0,0 UV-I 0 W/m 0,8 C 5,8 C 6,4 km/h (2 Bft) 100,00 %
16.03.2017 22:40 5,8 C 70 % 1020,7 hPa 0,0 l/m 3,6 km/h (1 Bft) S 180 0 min 0,000 mm 0,0 UV-I 0 W/m 0,8 C 5,8 C 6,4 km/h (2 Bft) 100,00 %
16.03.2017 22:42 5,8 C 70 % 1020,7 hPa 0,0 l/m 3,5 km/h (1 Bft) S 180 0 min 0,000 mm 0,0 UV-I 0 W/m 0,8 C 5,8 C 6,4 km/h (2 Bft) 96,00 %
16.03.2017 22:44 5,8 C 70 % 1020,7 hPa 0,0 l/m 3,1 km/h (1 Bft) S 179 0 min 0,000 mm 0,0 UV-I 0 W/m 0,8 C 5,8 C 4,8 km/h (1 Bft) 100,00 %
16.03.2017 22:46 5,8 C 70 % 1020,7 hPa 0,0 l/m 2,6 km/h (1 Bft) S 179 0 min 0,000 mm 0,0 UV-I 0 W/m 0,8 C 5,8 C 4,8 km/h (1 Bft) 92,00 %
16.03.2017 22:48 5,7 C 70 % 1020,7 hPa 0,0 l/m 2,4 km/h (1 Bft) S 179 0 min 0,000 mm 0,0 UV-I 0 W/m 0,7 C 5,7 C 4,8 km/h (1 Bft) 96,00 %
16.03.2017 22:50 5,7 C 70 % 1020,6 hPa 0,0 l/m 3,5 km/h (1 Bft) S 179 0 min 0,000 mm 0,0 UV-I 0 W/m 0,7 C 5,7 C 6,4 km/h (2 Bft) 97,37 %
16.03.2017 22:52 5,7 C 70 % 1020,6 hPa 0,0 l/m 4,4 km/h (1 Bft) S 179 0 min 0,000 mm 0,0 UV-I 0 W/m 0,7 C 5,7 C 6,4 km/h (2 Bft) 94,34 %
16.03.2017 22:54 5,7 C 70 % 1020,6 hPa 0,0 l/m 4,8 km/h (1 Bft) S 180 0 min 0,000 mm 0,0 UV-I 0 W/m 0,7 C 5,7 C 6,4 km/h (2 Bft) 98,00 %
16.03.2017 22:56 5,6 C 71 % 1020,5 hPa 0,0 l/m 5,4 km/h (1 Bft) S 180 0 min 0,000 mm 0,0 UV-I 0 W/m 0,8 C 5,6 C 6,4 km/h (2 Bft) 94,29 %
16.03.2017 22:58 5,4 C 72 % 1020,6 hPa 0,0 l/m 4,2 km/h (1 Bft) S 180 0 min 0,000 mm 0,0 UV-I 0 W/m 0,8 C 5,4 C 6,4 km/h (2 Bft) 97,78 %
16.03.2017 23:00 5,3 C 72 % 1020,6 hPa 0,0 l/m 4,6 km/h (1 Bft) S 181 0 min 0,000 mm 0,0 UV-I 0 W/m 0,7 C 5,3 C 6,4 km/h (2 Bft) 98,11 %
16.03.2017 23:02 5,2 C 73 % 1020,5 hPa 0,0 l/m 3,4 km/h (1 Bft) S 181 0 min 0,026 mm 0,0 UV-I 0 W/m 0,8 C 5,2 C 6,4 km/h (2 Bft) 96,00 %
16.03.2017 23:04 5,1 C 73 % 1020,5 hPa 0,0 l/m 3,3 km/h (1 Bft) S 181 0 min 0,000 mm 0,0 UV-I 0 W/m 0,7 C 5,1 C 6,4 km/h (2 Bft) 90,00 %
16.03.2017 23:06 5,0 C 73 % 1020,5 hPa 0,0 l/m 4,3 km/h (1 Bft) S 181 0 min 0,000 mm 0,0 UV-I 0 W/m 0,6 C 5,0 C 6,4 km/h (2 Bft) 97,56 %
16.03.2017 23:08 5,0 C 73 % 1020,5 hPa 0,0 l/m 4,5 km/h (1 Bft) S 181 0 min 0,000 mm 0,0 UV-I 0 W/m 0,6 C 5,0 C 6,4 km/h (2 Bft) 96,00 %
16.03.2017 23:10 5,0 C 73 % 1020,5 hPa 0,0 l/m 4,8 km/h (1 Bft) S 181 0 min 0,000 mm 0,0 UV-I 0 W/m 0,6 C 5,0 C 6,4 km/h (2 Bft) 97,87 %
16.03.2017 23:12 4,9 C 73 % 1020,5 hPa 0,0 l/m 4,0 km/h (1 Bft) S 181 0 min 0,000 mm 0,0 UV-I 0 W/m 0,5 C 4,9 C 4,8 km/h (1 Bft) 95,12 %
16.03.2017 23:14 4,9 C 73 % 1020,5 hPa 0,0 l/m 3,7 km/h (1 Bft) S 181 0 min 0,000 mm 0,0 UV-I 0 W/m 0,5 C 4,9 C 4,8 km/h (1 Bft) 98,00 %
16.03.2017 23:16 4,8 C 74 % 1020,5 hPa 0,0 l/m 4,6 km/h (1 Bft) S 181 0 min 0,000 mm 0,0 UV-I 0 W/m 0,6 C 4,8 C 4,8 km/h (1 Bft) 98,00 %
16.03.2017 23:18 4,7 C 74 % 1020,4 hPa 0,0 l/m 5,0 km/h (1 Bft) S 182 0 min 0,000 mm 0,0 UV-I 0 W/m 0,5 C 4,7 C 6,4 km/h (2 Bft) 97,73 %
16.03.2017 23:20 4,6 C 75 % 1020,5 hPa 0,0 l/m 4,6 km/h (1 Bft) S 182 0 min 0,000 mm 0,0 UV-I 0 W/m 0,6 C 4,6 C 6,4 km/h (2 Bft) 94,44 %
16.03.2017 23:22 4,6 C 75 % 1020,4 hPa 0,0 l/m 4,5 km/h (1 Bft) S 182 0 min 0,000 mm 0,0 UV-I 0 W/m 0,6 C 4,6 C 4,8 km/h (1 Bft) 100,00 %
16.03.2017 23:24 4,5 C 75 % 1020,4 hPa 0,0 l/m 4,2 km/h (1 Bft) S 182 0 min 0,000 mm 0,0 UV-I 0 W/m 0,5 C 4,5 C 6,4 km/h (2 Bft) 97,96 %
16.03.2017 23:26 4,6 C 76 % 1020,4 hPa 0,0 l/m 4,1 km/h (1 Bft) S 182 0 min 0,000 mm 0,0 UV-I 0 W/m 0,7 C 4,6 C 4,8 km/h (1 Bft) 97,44 %
16.03.2017 23:28 4,6 C 76 % 1020,4 hPa 0,0 l/m 4,4 km/h (1 Bft) S 182 0 min 0,000 mm 0,0 UV-I 0 W/m 0,7 C 4,6 C 6,4 km/h (2 Bft) 98,00 %
16.03.2017 23:30 4,6 C 75 % 1020,5 hPa 0,0 l/m 4,2 km/h (1 Bft) S 182 0 min 0,000 mm 0,0 UV-I 0 W/m 0,6 C 4,6 C 6,4 km/h (2 Bft) 96,00 %
16.03.2017 23:32 4,6 C 75 % 1020,5 hPa 0,0 l/m 4,7 km/h (1 Bft) S 183 0 min 0,000 mm 0,0 UV-I 0 W/m 0,6 C 4,6 C 6,4 km/h (2 Bft) 98,00 %
16.03.2017 23:34 4,6 C 75 % 1020,5 hPa 0,0 l/m 5,0 km/h (1 Bft) S-SW 196 0 min 0,000 mm 0,0 UV-I 0 W/m 0,6 C 4,6 C 6,4 km/h (2 Bft) 98,00 %
16.03.2017 23:36 4,6 C 74 % 1020,5 hPa 0,0 l/m 4,7 km/h (1 Bft) S-SW 196 0 min 0,000 mm 0,0 UV-I 0 W/m 0,4 C 4,6 C 6,4 km/h (2 Bft) 100,00 %
16.03.2017 23:38 4,7 C 74 % 1020,3 hPa 0,0 l/m 6,0 km/h (2 Bft) SW 219 0 min 0,000 mm 0,0 UV-I 0 W/m 0,5 C 4,7 C 8,0 km/h (2 Bft) 96,23 %
16.03.2017 23:40 4,7 C 73 % 1020,3 hPa 0,0 l/m 6,8 km/h (2 Bft) S-SW 211 0 min 0,000 mm 0,0 UV-I 0 W/m 0,3 C 4,4 C 8,0 km/h (2 Bft) 97,56 %
16.03.2017 23:42 4,8 C 73 % 1020,4 hPa 0,0 l/m 5,4 km/h (1 Bft) S-SW 213 0 min 0,000 mm 0,0 UV-I 0 W/m 0,4 C 4,8 C 6,4 km/h (2 Bft) 100,00 %
16.03.2017 23:44 4,8 C 73 % 1020,4 hPa 0,0 l/m 5,1 km/h (1 Bft) S-SW 204 0 min 0,000 mm 0,0 UV-I 0 W/m 0,4 C 4,8 C 6,4 km/h (2 Bft) 97,56 %
16.03.2017 23:46 4,8 C 72 % 1020,4 hPa 0,0 l/m 5,5 km/h (1 Bft) S-SW 205 0 min 0,000 mm 0,0 UV-I 0 W/m 0,2 C 4,8 C 8,0 km/h (2 Bft) 98,00 %
16.03.2017 23:48 4,9 C 72 % 1020,3 hPa 0,0 l/m 4,8 km/h (1 Bft) S-SW 205 0 min 0,000 mm 0,0 UV-I 0 W/m 0,3 C 4,9 C 6,4 km/h (2 Bft) 100,00 %
16.03.2017 23:50 4,8 C 72 % 1020,3 hPa 0,0 l/m 4,2 km/h (1 Bft) S-SW 205 0 min 0,000 mm 0,0 UV-I 0 W/m 0,2 C 4,8 C 4,8 km/h (1 Bft) 97,56 %
16.03.2017 23:52 4,7 C 72 % 1020,3 hPa 0,0 l/m 2,3 km/h (1 Bft) S-SW 205 0 min 0,000 mm 0,0 UV-I 0 W/m 0,1 C 4,7 C 4,8 km/h (1 Bft) 100,00 %
16.03.2017 23:54 4,7 C 73 % 1020,2 hPa 0,0 l/m 3,2 km/h (1 Bft) S-SW 205 0 min 0,000 mm 0,0 UV-I 0 W/m 0,3 C 4,7 C 4,8 km/h (1 Bft) 97,87 %
16.03.2017 23:56 4,6 C 73 % 1020,2 hPa 0,0 l/m 3,6 km/h (1 Bft) S-SW 205 0 min 0,000 mm 0,0 UV-I 0 W/m 0,2 C 4,6 C 4,8 km/h (1 Bft) 97,56 %
16.03.2017 23:58 4,5 C 73 % 1020,2 hPa 0,0 l/m 3,5 km/h (1 Bft) S-SW 205 0 min 0,000 mm 0,0 UV-I 0 W/m 0,1 C 4,5 C 4,8 km/h (1 Bft) 100,00 %
_ Min-Zeit 06:06 15:56 23:54 - 02:28 - - - - - - 23:58 06:06 02:28 20:50
Minimum _ 1,9 C 42 % 1020,2 hPa - 0,0 km/h (0 Bft) - - - - - - 0,1 C 1,9 C 0,0 km/h (0 Bft) 87,23 %
_ Max-Zeit 15:44 05:06 00:04 00:00 12:18 - - 10:13 13:02 12:06 12:06 11:05 15:42 13:28 00:04
Maximum _ 14,8 C 96 % 1028,3 hPa 0,0 l/m 16,6 km/h
SW (3 Bft)
- - 3 min 0,356 mm 2,6 UV-I 773 W/m 7,3 C 14,7 C 29,0 km/h
W-SW (5 Bft)
100,00 %
Durchschnitt _ 7,8 C 74 % 1024,2 hPa #0,0 l/m 4,7 km/h (1 Bft) S-SW - #10:12 h #2,388 mm 1,5 UV-I 329 W/m 3,0 C 7,4 C 8,1 km/h (2 Bft) 96,89 %